[{"header": {"dx": 0.06612293990616946, "dy": 0.0552356325346848, "nx": 98, "ny": 59, "la1": 35.046912555036876, "la2": 31.78801023549047, "lo1": -121.43107172385933, "lo2": -114.95102361305473, "refTime": "2026040808", "parameterCategory": 1, "parameterNumber": 2}, "data": [8.75, 8.75, 8.75, 8.64, 8.96, 9.3, 9.22, 9.6, 9.11, 9.44, 8.66, 6.76, 5.4, 0.0, 0.0, -3.49, -6.64, -6.45, -5.59, -5.93, -6.8, -7.47, -6.36, -6.23, -5.75, -4.43, -3.76, -1.52, 0.0, 0.0, 2.12, 4.11, 5.36, 5.36, 5.29, 5.81, 6.26, 6.71, 6.61, 6.58, 7.15, 8.05, 9.83, 9.96, 10.19, 11.42, 13.65, 14.73, 15.1, 12.89, 9.89, 2.19, -0.0, -0.0, 2.7, 5.46, 7.27, 8.37, 8.72, 9.6, 10.05, 9.89, 8.8, 7.81, 6.32, 6.44, 6.99, 7.95, 8.99, 10.68, 11.61, 11.28, 10.68, 10.28, 9.74, 9.54, 10.28, 11.4, 12.85, 12.52, -10.28, -7.01, -5.7, -4.47, -4.02, -4.92, -5.36, 6.26, 5.94, 5.51, 7.35, 8.43, 9.16, 9.89, 10.25, 10.73, 9.6, 6.94, 8.49, 8.46, 8.75, 8.75, 8.64, 8.96, 9.58, 9.95, 9.22, 9.53, 8.49, 8.1, 8.22, 7.59, 9.6, 4.4, -4.0, -6.95, -6.52, -5.09, -6.91, -7.37, -7.47, -7.06, -6.23, -6.0, -5.36, -4.74, -3.0, -1.63, 0.0, 0.0, 5.81, 5.51, 5.4, 6.17, 7.08, 7.15, 7.15, 7.21, 7.47, 9.13, 9.58, 8.85, 10.12, 12.01, 14.13, 14.13, 12.84, 10.24, 10.38, -0.0, -0.0, 1.39, 3.87, 5.7, 7.27, 7.81, 8.72, 9.8, 9.4, 9.63, 8.43, 6.64, 6.32, 6.28, 7.37, 8.37, 8.99, 9.75, 11.18, 11.11, 11.0, 10.28, 8.94, 8.6, 9.92, 11.4, 12.85, 12.52, -10.28, -7.01, -5.7, -4.47, -4.02, -4.92, -5.36, 6.26, 5.94, 5.51, 7.35, 8.43, 9.16, 9.89, 10.25, 10.73, 9.6, 6.94, 8.49, 8.75, 8.46, 8.75, 9.06, 9.38, 9.58, 9.58, 9.49, 8.84, 7.12, 5.52, 7.26, 8.94, 8.8, 9.54, 6.95, -5.06, -6.95, -6.87, -5.72, -7.64, -7.28, -7.07, -7.47, -6.58, -6.71, -6.51, -4.74, -4.29, -4.56, -3.97, -4.74, 7.15, 4.43, 7.37, 7.08, 7.6, 8.43, 8.22, 8.0, 8.22, 9.24, 10.46, 11.68, 12.35, 13.31, 12.51, 9.1, 8.24, 6.95, 3.65, 1.62, 3.11, 3.7, 4.88, 5.72, 7.81, 8.72, 9.4, 9.55, 9.2, 8.18, 6.64, 6.32, 6.91, 7.96, 8.99, 9.6, 10.17, 10.96, 11.79, 11.93, 10.73, 7.94, 8.05, 9.83, 12.85, 13.84, 13.41, 9.2, -8.05, -7.6, -6.26, -4.02, -5.36, -5.09, 6.26, 5.2, 6.99, 9.42, 9.4, 8.64, 8.64, 8.69, 8.47, 6.07, 5.6, 8.49, 8.49, 8.46, 8.46, 8.75, 9.06, 9.66, 9.66, 9.3, 8.2, 7.02, 5.62, 6.45, 6.42, 7.27, 8.23, 8.82, 4.8, -5.95, -7.4, -6.55, -6.32, -7.28, -7.69, -7.82, -8.33, -7.15, -6.71, -6.36, -4.56, -4.14, -5.59, -6.63, -7.07, 0.0, 7.63, 8.33, 9.7, 9.55, 9.52, 9.8, 10.61, 10.57, 10.73, 10.61, 11.22, 10.75, 7.64, 7.81, 8.77, 5.31, 4.83, 2.97, 2.58, 2.28, 4.88, 6.3, 7.47, 8.72, 9.55, 9.75, 9.2, 7.56, 6.3, 5.82, 7.06, 8.18, 8.42, 9.0, 10.29, 12.03, 13.7, 14.47, 12.52, 7.67, 6.01, 8.8, 12.41, 15.2, 13.37, 7.6, -5.2, -6.79, -5.81, -4.47, -4.92, 5.81, 5.2, 5.24, 8.79, 10.41, 9.4, 7.9, 7.59, 6.39, 5.58, 5.21, 6.16, 8.49, 8.49, 8.75, 8.46, 8.75, 9.44, 9.33, 9.66, 9.3, 8.66, 6.7, 5.62, 5.0, 5.29, 6.17, 5.52, 6.7, 7.9, -1.84, -7.9, -8.37, -7.2, -7.2, -7.76, -7.82, -8.63, -7.89, -7.2, -5.69, -1.84, -3.15, -4.66, -5.9, -4.92, 0.0, 3.11, 4.6, 8.22, 9.8, 10.76, 10.61, 10.11, 9.8, 10.61, 11.3, 10.91, 10.22, 9.39, 8.85, 7.37, 7.44, 5.59, 2.83, 2.58, 3.7, 6.3, 7.56, 8.0, 8.99, 9.55, 9.85, 8.93, 6.3, 6.4, 6.18, 7.76, 8.18, 7.51, 8.02, 9.34, 12.03, 14.75, 15.27, 14.53, 12.52, 3.6, 4.94, 8.24, 11.86, 12.49, 4.77, -3.48, -5.4, -7.06, -4.85, -4.46, 2.98, 6.28, 8.75, 10.38, 10.12, 8.47, 8.02, 4.43, 4.43, 5.01, 5.6, 8.67, 8.49, 8.49, 8.49, 8.46, 8.85, 9.14, 9.42, 9.06, 8.96, 8.31, 6.7, 5.7, 5.52, 7.27, 7.59, 6.44, 5.52, 7.26, 3.68, -7.02, -8.93, -8.3, -8.58, -8.4, -7.76, -8.15, -7.21, -5.36, -3.32, 0.0, 0.0, 0.0, -2.46, -3.07, -0.71, 0.73, 2.44, 7.03, 9.49, 9.78, 7.97, 7.19, 9.58, 11.18, 11.62, 12.52, 12.07, 10.73, 9.34, 9.11, 8.91, 7.67, 4.6, 2.97, 4.83, 6.95, 7.56, 8.18, 8.34, 10.08, 9.13, 8.18, 6.3, 6.64, 6.73, 8.43, 8.6, 7.28, 6.91, 9.2, 12.04, 13.39, 13.99, 14.53, 14.95, 13.67, 4.0, 3.47, 5.44, 9.39, 5.26, 0.0, -3.22, -5.93, -4.47, 0.0, 2.83, 6.67, 9.57, 8.97, 7.9, 9.36, 6.64, 2.12, -4.74, 4.74, 6.99, 9.33, 8.49, 8.49, 8.49, 8.75, 8.85, 9.14, 9.14, 9.44, 9.09, 8.31, 7.02, 5.28, 6.17, 9.2, 11.03, 8.58, 7.9, 8.53, 8.53, 0.0, -8.67, -10.12, -9.73, -9.8, -8.32, -6.71, -6.45, -4.36, -3.77, -2.46, 0.0, 4.96, 6.64, 1.2, 0.0, 0.0, 0.78, 5.18, 7.96, 7.43, 5.28, 1.98, 3.96, 9.17, 13.48, 12.39, 12.24, 10.7, 9.83, 10.28, 9.83, 8.72, 6.64, 4.83, 5.86, 6.64, 7.33, 8.18, 9.21, 9.42, 8.99, 7.81, 7.33, 7.76, 6.99, 8.17, 8.99, 8.67, 7.5, 8.94, 10.73, 11.62, 12.04, 14.27, 15.07, 15.6, 13.15, 6.01, 5.81, 9.83, 7.52, 4.75, 1.05, -1.11, 0.0, 1.52, 4.06, 5.28, 6.98, 6.67, 6.08, 6.7, 1.32, -7.15, -5.06, 4.19, 6.91, 8.21, 8.22, 8.49, 8.49, 8.49, 8.85, 8.85, 9.14, 9.14, 8.78, 8.05, 6.04, 4.4, 6.17, 8.94, 11.21, 9.96, 9.97, 10.19, 10.41, 12.14, 10.37, -3.44, -6.31, -9.39, -8.06, -6.64, -5.55, -5.55, -5.64, -5.54, -3.82, 0.0, 4.15, 3.98, 2.6, 0.75, 0.0, 2.34, 6.16, 6.24, 5.2, 2.71, 2.32, 4.52, 6.42, 7.65, 7.32, 9.33, 9.7, 10.52, 9.29, 9.21, 6.95, 5.46, 5.46, 6.3, 7.56, 8.0, 8.99, 9.33, 8.91, 8.63, 8.91, 7.89, 7.06, 7.47, 9.16, 8.94, 7.97, 7.42, 8.8, 10.12, 11.05, 11.8, 13.11, 12.48, 12.27, 10.8, 12.04, 14.26, 15.65, 9.89, 4.5, 2.28, 1.52, 2.93, 4.39, 4.36, 4.1, 4.99, 5.0, 0.67, -5.94, -7.06, -1.73, 3.72, 6.11, 6.79, 8.59, 8.49, 8.49, 8.49, 9.14, 8.85, 9.14, 9.14, 8.78, 7.48, 5.98, 4.58, 3.56, 4.1, 8.01, 9.77, 10.12, 10.55, 11.6, 11.87, 12.27, 12.71, 5.8, -5.4, -6.33, -5.92, -4.4, -6.45, -8.32, -6.16, -2.28, 0.0, 0.0, 2.72, 2.93, 1.76, 1.11, 1.07, 2.28, 4.4, 3.25, 3.21, 4.43, 4.28, 3.06, 3.07, 4.32, 6.44, 8.32, 8.63, 9.45, 9.21, 4.83, 5.46, 5.46, 6.64, 7.51, 8.99, 9.55, 8.99, 8.99, 8.67, 8.05, 6.71, 5.69, 7.6, 9.33, 8.94, 8.38, 7.47, 7.74, 9.11, 11.18, 11.52, 10.75, 9.79, 8.94, 10.08, 12.81, 15.08, 16.43, 13.8, 6.4, 3.51, 3.61, 3.69, 4.5, 5.0, 3.39, 1.39, -1.14, -5.09, -4.93, -4.19, 0.0, 3.47, 5.24, 5.69, 8.59, 8.22, 8.49, 8.49, 9.14, 9.14, 8.85, 9.14, 8.49, 7.48, 6.63, 6.36, 4.84, 3.41, 3.36, 4.58, 6.4, 6.6, 7.32, 6.0, 4.81, 4.81, 9.8, 2.63, -4.6, -5.46, -5.44, -7.59, -8.91, -4.48, 0.0, 0.0, 0.0, 0.0, 0.0, 1.45, 4.6, 3.4, 1.95, 2.17, 3.16, 3.07, 3.17, 2.26, 0.0, 0.0, 0.0, 2.21, 4.96, 6.98, 8.48, 6.32, 5.86, 6.01, 6.11, 7.4, 8.93, 10.38, 10.78, 10.12, 9.68, 7.56, 8.05, 7.21, 4.71, 7.89, 9.33, 9.35, 8.05, 8.33, 8.06, 10.25, 11.71, 11.28, 10.62, 9.79, 8.43, 8.73, 11.05, 13.83, 16.09, 16.52, 12.89, 3.77, 3.0, 3.2, 4.26, 6.01, 6.28, 5.2, -5.36, -4.92, -4.11, -2.8, 0.0, 3.33, 5.69, 5.49, 8.59, 8.22, 8.78, 9.06, 9.44, 9.44, 9.14, 9.14, 8.49, 7.85, 7.48, 7.53, 7.85, 6.48, 4.52, 3.0, 4.3, 4.5, 4.5, 4.32, 1.24, 0.0, 1.83, 4.52, -2.93, -5.44, -6.17, -5.45, -6.67, -3.65, 0.0, 1.71, 0.0, -1.7, -2.19, 0.0, 4.36, 5.46, 2.64, 2.26, 0.0, -1.03, -4.74, -3.4, -6.32, -7.15, -7.6, -7.89, -8.33, -8.49, -8.94, 4.0, 6.32, 6.98, 7.64, 8.55, 10.92, 11.71, 12.03, 11.18, 8.94, 8.05, 8.05, 7.44, 4.71, 7.28, 9.21, 8.91, 7.97, 7.94, 8.79, 10.01, 11.45, 11.18, 11.05, 11.05, 9.49, 8.4, 8.8, 11.68, 13.72, 15.55, 15.2, 12.3, 3.32, 3.68, 5.37, 5.95, 6.02, 4.92, 4.47, 4.0, 0.0, -1.14, 1.1, 4.58, 5.95, 6.79, 8.59, 8.87, 8.78, 9.06, 9.44, 9.44, 9.44, 9.06, 8.49, 7.57, 7.85, 7.69, 8.51, 8.58, 8.66, 7.12, 5.6, 5.35, 5.32, 4.75, 2.98, 0.0, 1.09, 3.04, 3.4, -4.43, -4.43, -2.53, -2.99, -0.89, 0.0, 1.03, 0.0, -1.98, -2.82, 0.0, 2.31, 2.99, 0.0, -8.05, -7.37, -6.8, -3.0, -2.4, -6.32, -6.23, -6.8, -6.8, -7.2, -8.49, -5.37, 0.0, 8.05, 7.89, 7.63, 8.29, 9.92, 11.91, 12.52, 10.23, 7.89, 8.41, 8.94, -0.0, 6.01, 7.67, 9.6, 10.79, 10.47, 10.2, 9.66, 10.01, 10.1, 9.92, 10.12, 11.33, 10.84, 8.99, 8.68, 10.53, 11.41, 11.45, 12.48, 14.69, 10.73, 8.4, 6.98, 7.07, 8.22, 6.2, 5.59, 4.52, 4.0, 2.4, 4.43, 5.24, 6.64, 7.15, 8.87, 8.87, 8.78, 9.44, 9.44, 9.44, 9.44, 8.78, 8.49, 8.22, 8.22, 8.38, 8.64, 9.23, 10.68, 11.54, 10.99, 8.01, 6.1, 5.71, 4.93, 3.25, 1.84, 2.47, 3.93, 4.4, -4.92, -3.22, -4.43, -6.71, -5.64, -4.84, -2.16, -0.0, 2.6, 1.98, 1.63, 7.6, -0.0, -5.37, -7.6, -5.58, -1.98, 0.0, -2.8, -3.49, -3.76, -4.29, -5.37, -3.4, -2.12, -1.01, 0.0, 3.68, 7.15, 8.72, 7.94, 10.18, 11.62, 6.71, 7.6, 8.0, 8.94, -8.49, 8.49, 7.6, 6.13, 8.55, 9.3, 11.03, 10.73, 9.33, 8.67, 7.81, 8.99, 10.68, 10.85, 9.42, 9.3, 8.93, 6.96, 7.07, 10.15, 12.63, 12.52, 12.52, 10.32, 7.33, 7.68, 7.6, 6.94, 5.2, 3.82, 4.82, 6.36, 5.94, 6.58, 6.71, 8.87, 8.87, 8.87, 9.16, 9.44, 9.16, 8.86, 8.86, 8.49, 8.49, 8.49, 8.49, 9.06, 9.33, 10.65, 12.11, 13.26, 12.37, 10.22, 8.76, 8.01, 8.02, 7.24, 6.76, 6.2, 6.17, 0.0, -5.01, -4.46, -5.09, -5.75, -5.4, -4.74, -0.0, 3.47, 3.47, 4.43, 5.95, 6.4, 0.0, -2.66, -1.84, 0.0, 1.05, 0.0, -1.03, -2.12, -3.11, -2.17, -2.7, -1.39, 0.0, 1.48, 1.38, 2.72, 3.06, 3.49, 7.89, 10.73, 6.71, -8.24, -8.48, -7.44, -6.01, -3.2, 0.0, 6.26, 3.47, 3.11, -0.0, -0.0, -0.0, 7.59, 9.83, 9.46, 10.17, 9.77, 8.0, 7.67, 6.7, 5.43, 6.01, 9.21, 11.16, 11.96, 13.19, 12.66, 9.55, 6.8, 6.58, 6.64, 5.32, 5.2, 5.31, 5.64, 5.31, 6.26, 6.26, 8.87, 8.87, 8.87, 9.16, 9.46, 9.16, 9.21, 8.86, 8.86, 8.49, 8.49, 9.14, 9.14, 9.73, 10.69, 12.04, 12.77, 13.15, 13.27, 12.27, 11.25, 10.91, 10.73, 10.82, 9.48, 6.43, 0.0, -8.94, -4.84, -3.48, -4.4, -4.66, -6.0, -5.06, -0.0, 5.37, 8.05, 7.15, 8.49, 0.0, 0.0, 0.0, 0.0, 0.0, 0.0, 0.0, 0.0, 0.0, -0.95, -2.06, -1.04, 0.0, 2.13, 0.94, 0.0, 0.0, 0.0, 5.31, 8.05, 7.6, -7.81, -7.81, -6.08, -4.56, -3.91, -1.84, 0.0, 7.15, 2.8, -0.0, -1.96, -1.45, -0.0, 5.95, 10.28, 8.72, 7.63, 7.63, 6.99, 6.6, 5.95, 5.43, 7.59, 9.45, 8.67, 10.73, 12.72, 11.18, 8.33, 7.89, 7.6, 7.11, 5.64, 5.2, 6.22, 5.36, 5.81, 5.81, 8.87, 8.87, 8.87, 9.16, 9.46, 8.86, 9.21, 9.21, 8.86, 8.86, 9.14, 9.14, 9.14, 9.79, 10.39, 11.38, 12.36, 12.7, 12.43, 12.78, 12.52, 12.01, 11.94, 12.47, 11.76, 10.94, 9.77, 11.62, 9.54, 7.21, 4.43, -0.0, -3.79, -0.0, -0.0, 4.74, 7.6, 7.6, 0.0, 0.0, -1.23, 0.0, -4.74, -6.71, -4.74, -2.26, -0.0, 6.71, 0.0, -1.98, 0.0, 0.0, 0.0, 0.0, 0.0, 0.0, 1.32, 3.97, 6.8, 0.0, -6.8, -7.6, -6.71, -3.0, -1.63, 0.0, 0.0, 5.69, -0.0, -2.49, -4.22, -1.62, -0.0, 6.45, 8.4, 5.69, 7.07, 8.0, 8.49, 7.81, 7.2, 6.08, 6.6, 7.47, 7.35, 5.81, 9.2, 9.83, 7.28, 7.21, 8.43, 6.07, 5.09, 5.77, 8.02, 6.22, 4.88, 4.88, 8.87, 8.87, 8.87, 8.87, 9.17, 9.16, 9.21, 9.5, 9.21, 8.86, 9.14, 9.14, 9.42, 9.79, 10.74, 10.74, 11.37, 12.02, 12.35, 12.68, 12.65, 11.9, 11.99, 12.39, 13.49, 14.42, 14.71, 14.3, 13.36, 12.02, 10.28, 8.05, 6.0, -0.0, -0.0, -0.0, -3.0, -7.15, -4.43, -4.11, -3.79, -5.2, -7.15, -6.26, -5.37, -3.4, -5.37, -0.0, -0.0, -0.0, 7.15, 7.15, 7.15, -0.0, -0.0, 7.15, 5.37, 8.05, 8.49, -8.94, 8.94, 8.05, -0.0, 6.71, 6.71, 4.11, 0.0, 0.0, -5.37, -4.43, -7.07, -10.0, 12.96, 11.62, 8.05, -0.0, 2.97, 5.06, 5.9, 8.0, 8.49, 7.81, 7.63, 7.63, 8.06, 6.58, 4.92, 3.83, 4.85, 8.05, 8.91, 7.98, 5.94, 6.51, 8.19, 6.85, 4.77, 4.77, 8.87, 9.21, 9.21, 8.87, 9.17, 8.87, 9.21, 9.21, 9.21, 9.21, 9.14, 9.42, 9.79, 9.79, 10.44, 11.05, 11.37, 11.97, 11.93, 11.81, 11.72, 11.99, 12.26, 12.5, 13.76, 15.2, 16.09, 15.65, 15.2, 14.27, 12.79, 10.91, 8.94, 2.8, -0.0, -1.4, -5.58, -5.94, -4.84, -5.2, -6.26, -7.15, -6.51, -5.95, -7.6, 8.05, 8.05, 7.6, -0.0, -0.0, -0.0, -0.0, -0.0, -0.0, -0.0, 7.6, 8.05, -0.0, 8.49, 8.49, 8.49, 8.05, -0.0, -0.0, -2.8, -0.0, 0.0, 2.26, 0.0, -11.18, -11.45, -6.45, 0.0, -2.83, -9.39, -2.97, 3.49, 6.14, 7.33, 6.79, 5.95, 6.26, 7.01, 8.4, 7.2, 6.52, 6.7, 5.36, 6.21, 7.71, 9.24, 8.0, 6.45, 6.8, 7.06, 6.36, 4.73, 4.73, 9.21, 9.21, 9.21, 9.21, 9.17, 8.87, 9.21, 9.21, 9.5, 9.21, 9.5, 9.42, 9.69, 10.39, 10.1, 11.52, 10.43, 10.99, 11.16, 11.22, 13.15, 14.13, 13.05, 12.21, 12.42, 14.66, 13.74, 14.47, 13.7, 12.89, 11.8, 10.8, 9.2, 8.94, -1.63, -2.8, -4.43, -5.36, -7.01, -6.36, -5.36, -5.51, -6.26, -6.71, -7.6, -8.05, 8.05, -0.0, -0.0, -0.0, -0.0, -0.0, -0.0, -0.0, -0.0, 8.05, 8.05, 8.49, 8.49, 8.49, 8.05, 7.6, -0.0, -3.47, -3.22, -5.2, 0.0, 3.0, 5.36, 7.59, 7.27, 10.38, 11.91, 11.84, 0.0, 10.73, 9.83, 9.83, 9.21, 7.89, 6.07, 7.6, 8.4, 7.56, 7.56, 5.36, 6.14, 7.55, 8.93, 7.61, 7.03, 7.71, 7.21, 6.82, 6.07, 5.6, 5.34, 5.34, 9.21, 9.21, 9.21, 9.21, 9.17, 8.87, 9.21, 9.21, 9.5, 9.84, 9.5, 9.79, 10.08, 10.39, 10.39, 10.75, 10.12, 9.5, 9.8, 10.85, 14.58, 14.39, 13.93, 12.65, 10.97, 12.22, 12.35, 12.5, 12.5, 10.85, 9.17, 7.59, 4.6, 0.0, -5.69, -5.36, -4.98, -5.59, -6.26, -6.26, -5.7, -4.6, -3.83, -4.0, -4.4, -7.6, -0.0, -5.37, -5.37, -0.0, -0.0, -0.0, -0.0, -0.0, -0.0, 7.15, 8.49, 7.6, 5.69, 8.49, 8.05, 7.6, -5.06, -5.06, -4.11, -5.2, 0.0, 4.74, 7.45, 8.38, 9.33, 12.31, 16.86, 18.78, 14.42, 7.54, 3.53, 5.52, 7.89, 7.15, 6.71, 8.05, 8.82, 7.6, 6.63, 4.65, 4.02, 4.74, 8.24, 5.98, 5.3, 7.06, 8.3, 6.44, 5.37, 6.08, 5.31, 5.31, 9.21, 9.5, 9.5, 9.5, 9.5, 9.5, 9.21, 9.21, 9.84, 9.84, 9.84, 9.79, 10.08, 10.39, 10.74, 10.74, 10.4, 9.19, 7.89, 9.92, 12.97, 13.32, 13.32, 12.42, 11.62, 11.59, 11.06, 10.75, 10.12, 8.53, 6.98, 3.8, 0.0, -3.8, -7.6, -6.36, -5.7, -5.7, -6.26, -6.71, -6.23, -5.37, -5.37, -5.01, -4.46, -7.6, -7.6, -5.37, -3.4, -3.2, -0.0, -0.0, -0.0, -0.0, 7.6, 7.15, 8.05, 8.05, 8.49, 8.05, -7.6, -6.8, -6.4, -7.15, -5.81, -5.81, -5.81, 6.26, 5.06, 4.37, 8.22, 11.97, 15.55, 16.54, 14.24, 7.95, 5.73, 4.55, 4.6, 5.37, 6.51, 7.15, 7.89, 6.94, 6.71, 4.46, 3.79, 4.11, 5.2, 4.81, 4.83, 6.14, 7.64, 5.37, 4.36, 4.74, 4.12, 4.12, 9.5, 9.5, 9.5, 9.5, 9.19, 9.5, 9.5, 9.21, 9.84, 9.84, 9.84, 10.13, 10.13, 10.08, 10.43, 10.76, 10.43, 9.8, 10.11, 11.34, 12.01, 12.36, 12.07, 12.07, 11.7, 12.07, 11.82, 11.26, 9.64, 7.27, 3.91, 0.0, 0.0, -3.0, -7.15, -6.71, -6.26, -4.92, -5.81, -6.26, -5.6, -5.01, -4.43, -4.43, -4.11, -4.46, -8.05, -6.8, -5.06, -4.74, -0.0, -0.0, -0.0, 7.15, 7.15, 7.6, 7.6, -8.49, -8.49, -8.05, -5.95, -6.4, -5.95, -6.0, -6.26, -5.81, -5.81, -6.26, -2.8, -0.0, 5.36, 8.38, 11.53, 15.78, 3.14, 3.81, 6.52, 5.78, 2.91, 1.45, 4.46, 6.71, 6.36, 4.43, -0.0, 5.81, 0.0, 1.98, 5.84, 8.4, 8.73, 6.92, 7.61, 5.38, 2.79, 3.22, 4.54, 4.54, 9.5, 9.5, 9.5, 9.5, 9.19, 9.5, 9.5, 9.82, 9.84, 10.13, 10.13, 10.45, 10.43, 10.43, 10.43, 10.76, 10.43, 10.12, 10.75, 12.02, 12.99, 12.28, 12.0, 11.44, 11.41, 11.74, 12.14, 11.9, 10.12, 6.95, 2.54, 0.0, 0.0, 0.0, 0.0, 5.81, -5.36, -4.92, -4.92, -5.81, -5.6, -5.01, -4.43, -4.43, -3.22, -3.48, -5.06, -4.74, -4.43, -0.0, -0.0, 7.6, 7.6, 7.15, 7.15, 7.15, -6.71, -7.15, -7.2, -4.74, -5.95, -6.32, -6.8, -7.15, -4.74, -4.11, -5.36, -6.71, -6.71, 6.71, 8.05, -0.0, -0.0, 8.49, 0.0, 1.76, 5.14, 6.19, 4.5, 1.72, 0.0, 0.0, 4.74, 6.71, 0.0, 0.0, 0.0, 2.26, 5.98, 8.64, 9.62, 6.92, 6.28, 3.78, 2.84, 3.58, 4.09, 4.09, 9.5, 9.5, 9.5, 9.19, 9.19, 9.5, 9.5, 10.12, 9.84, 10.13, 10.13, 10.45, 10.76, 10.43, 10.43, 10.44, 10.75, 10.43, 11.06, 11.99, 12.92, 13.02, 12.37, 11.23, 11.45, 11.8, 12.14, 11.9, 10.66, 10.24, 8.93, 6.32, 0.0, 0.0, 0.0, 0.0, 6.26, -5.81, -5.36, -5.36, -5.51, -5.6, -5.36, -4.43, -4.11, -3.48, -4.74, -3.0, -5.06, -0.0, 8.05, 7.6, 7.6, 7.15, 7.15, 7.15, 5.81, -6.71, -7.6, -4.74, -0.0, -6.71, 6.71, 6.71, -3.48, -4.11, 8.05, 8.94, 7.6, 7.15, 0.0, 0.0, 11.18, 5.81, 0.0, 0.0, 2.83, 5.6, 6.4, 4.52, 2.06, 0.0, 0.0, 0.0, 0.0, 0.0, 0.0, 2.17, 3.81, 4.58, 6.68, 4.43, 3.43, 3.58, 3.22, 3.84, 4.46, 4.46, 9.5, 9.5, 9.5, 9.5, 9.19, 9.19, 9.8, 10.12, 10.13, 10.13, 10.13, 10.45, 10.76, 10.76, 10.45, 10.43, 10.43, 10.75, 10.75, 11.99, 12.57, 13.1, 12.92, 12.65, 12.27, 11.44, 11.52, 11.9, 11.28, 11.31, 10.87, 10.0, 8.18, 6.32, 6.01, 7.2, 5.37, 0.0, -4.74, -6.26, -6.71, -5.58, -5.06, -4.74, -3.76, -4.11, -4.11, -3.22, -4.43, -4.43, -4.11, -7.6, 7.15, 7.15, 7.6, 7.15, -0.0, -0.0, -6.71, 6.71, 5.81, 4.92, 0.0, 4.47, -0.0, 8.05, 8.94, -8.49, -7.6, 6.71, 2.4, 6.08, 10.58, 10.28, 9.83, 8.05, 5.7, 4.22, 7.15, 9.42, 8.38, 3.96, 1.84, 1.69, 0.0, 0.0, 1.0, 1.0, 1.96, 2.32, 5.21, 6.9, 5.24, 3.48, 2.79, 3.43, 4.11, 4.11, 9.5, 9.5, 9.5, 9.5, 9.19, 9.77, 10.09, 10.12, 10.43, 9.84, 10.13, 10.45, 10.76, 10.76, 11.06, 10.45, 10.13, 10.13, 11.06, 11.36, 11.92, 12.45, 13.02, 13.3, 13.42, 12.27, 11.79, 11.54, 10.91, 10.37, 10.25, 10.24, 10.0, 9.55, 8.8, 7.44, 8.06, 6.01, 0.0, 0.0, -7.6, -6.8, -6.32, -5.37, -3.97, -3.0, -3.72, -4.43, -5.21, -4.84, -4.8, -3.48, -4.74, -5.06, -5.37, -0.0, -0.0, 6.26, 6.71, 0.0, 0.0, 5.06, 4.92, 4.02, 6.71, 8.94, -8.94, -8.05, -7.15, -6.71, 2.26, 6.32, 7.74, 11.62, 12.75, 11.62, 10.8, 6.64, 4.11, 6.32, 9.17, 7.93, 5.28, 1.52, 0.0, 0.0, 1.01, 0.0, 0.0, 0.0, 6.71, 7.01, 7.6, 5.06, 3.22, 2.88, 3.32, 3.32, 9.5, 9.5, 9.5, 9.5, 9.8, 10.09, 10.09, 10.09, 10.12, 10.13, 10.13, 10.13, 10.76, 10.45, 11.06, 10.76, 10.43, 10.13, 10.75, 11.36, 11.92, 12.22, 12.73, 13.02, 13.3, 12.54, 11.69, 11.18, 10.55, 10.01, 9.34, 9.4, 9.43, 9.58, 9.6, 9.4, 9.04, 8.8, 8.4, 6.32, 4.0, 8.49, -0.0, -5.69, -2.4, -2.4, -5.37, -5.06, -6.36, -5.6, -4.65, -3.48, -3.16, -2.79, -4.43, -4.74, -5.06, -0.0, -0.0, 0.0, -3.6, 0.0, 5.37, 4.11, 8.94, 0.0, -8.49, -6.8, -5.06, 0.0, 1.73, 3.91, 6.7, 8.67, 9.32, 9.77, 11.99, 10.73, 3.22, 3.72, 6.87, 8.31, 7.1, 2.95, 0.0, 0.95, 1.01, 0.0, 0.0, -0.0, 4.74, 5.21, 8.05, 8.38, 5.58, 3.22, 2.44, 2.44, 9.5, 9.5, 9.5, 9.5, 9.8, 10.09, 10.09, 10.36, 10.4, 9.82, 9.84, 10.13, 10.13, 10.75, 10.75, 10.43, 10.43, 10.43, 11.05, 11.33, 11.58, 11.87, 11.87, 12.73, 13.02, 12.74, 11.96, 11.32, 10.81, 9.92, 9.66, 9.0, 9.04, 9.05, 9.42, 9.2, 9.4, 9.21, 8.63, 8.05, 6.32, 6.32, -0.0, -0.0, -0.0, -0.0, -8.49, -7.6, -6.79, -5.58, -5.2, -4.29, -3.07, -3.07, -3.07, -3.22, -3.0, -0.0, -0.0, 6.71, -3.97, -3.4, 0.0, 3.2, 0.0, 0.0, -8.49, -5.37, -2.4, 0.0, 1.84, 4.14, 4.71, 5.31, 7.06, 7.6, 9.55, 9.83, 1.52, 2.8, 5.15, 8.59, 10.22, 5.2, 1.47, 0.0, -1.52, -5.06, -0.0, 2.26, 3.2, 5.06, 6.79, 7.74, 7.97, 6.71, 5.59, 5.59, 9.5, 9.5, 9.5, 9.5, 9.8, 10.09, 10.09, 10.36, 10.4, 10.4, 10.13, 10.13, 10.13, 10.44, 10.43, 10.4, 10.4, 10.43, 11.05, 11.33, 11.33, 11.87, 11.87, 12.16, 12.65, 12.09, 11.81, 11.32, 10.47, 10.55, 10.29, 10.04, 9.4, 9.04, 9.05, 9.03, 9.36, 9.13, 8.8, 9.04, 8.05, 6.32, 8.49, -0.0, -0.0, -0.0, -8.49, -8.05, -7.6, -6.36, -4.84, -3.79, -2.95, -2.53, -2.73, -2.0, -2.8, -0.0, -0.0, -0.0, -4.74, -4.22, -2.12, -2.54, 0.0, -8.49, -8.94, -8.05, -6.8, -4.22, 0.0, 5.69, 7.07, 4.94, 5.21, 6.2, 8.23, 7.15, 2.6, 2.99, 4.11, 8.12, 10.87, 9.8, 4.83, -2.98, -5.36, -6.14, -5.21, -3.47, -1.98, -0.0, 5.58, 6.99, 6.99, 7.53, 6.7, 6.7, 9.5, 9.5, 9.5, 9.5, 9.5, 9.8, 10.09, 10.69, 10.4, 10.4, 10.12, 10.13, 10.13, 10.13, 10.12, 10.12, 10.12, 10.74, 11.03, 11.03, 11.63, 11.87, 11.87, 12.16, 11.8, 11.72, 11.81, 11.01, 10.47, 10.19, 10.66, 10.66, 10.04, 9.67, 9.3, 9.27, 9.03, 9.36, 9.55, 8.8, 8.18, 7.51, 8.0, 8.05, -0.0, -0.0, 8.49, 0.0, 5.36, -0.0, -0.0, -0.0, -1.55, -1.83, -1.55, -2.2, -1.76, -1.23, -1.52, -4.43, -6.71, -5.95, -5.06, -5.69, -8.05, -8.05, -7.2, -8.94, -6.26, -2.4, 0.0, 4.75, 8.17, 9.96, 8.85, 8.66, 7.73, 7.28, 4.4, 4.65, 3.35, 6.3, 9.17, 10.12, 9.17, 0.0, -5.29, -5.33, -4.92, -6.58, -6.8, -4.46, 2.69, 7.06, 7.81, 7.37, 7.2, 7.2, 9.19, 9.19, 9.5, 9.5, 9.5, 9.8, 10.09, 10.69, 10.4, 10.4, 10.12, 9.82, 10.13, 10.13, 10.12, 10.12, 10.42, 10.69, 11.03, 11.28, 11.28, 11.8, 11.8, 11.8, 11.8, 11.44, 11.52, 11.01, 10.81, 11.16, 10.91, 11.28, 10.66, 10.28, 9.67, 9.65, 9.27, 9.03, 9.36, 8.99, 8.8, 8.8, 7.81, 8.49, 7.6, 8.05, 6.01, 6.0, 4.02, 3.2, 2.98, 3.35, 2.48, -0.0, -0.96, -1.55, -1.94, -2.11, -2.73, -5.2, -6.71, -6.32, -6.7, -5.69, -8.05, -5.37, -6.71, -7.6, 7.15, 3.2, 1.03, 1.98, 6.13, 10.73, 13.28, 13.38, 11.42, 8.15, 7.81, 7.2, 6.95, 4.96, 7.08, 9.02, 9.97, 7.44, -9.2, -6.26, -5.78, -4.24, -4.22, -3.93, -1.98, 5.37, 8.0, 8.22, 6.99, 6.99, 9.19, 9.19, 9.19, 9.5, 9.8, 9.8, 10.09, 10.4, 10.4, 9.8, 10.42, 10.12, 10.13, 9.84, 9.82, 10.12, 10.42, 10.69, 11.03, 11.28, 11.52, 11.8, 11.8, 11.8, 11.8, 11.72, 11.52, 10.41, 9.77, 10.19, 10.81, 11.16, 10.79, 10.15, 9.9, 9.52, 9.65, 9.27, 9.03, 9.03, 8.6, 8.54, 8.05, 8.67, 8.67, 9.11, 9.11, 8.05, 6.14, 5.4, 4.98, 4.4, 3.93, 2.73, 1.55, -0.88, -1.55, -2.4, -3.43, -5.2, -6.26, -7.21, -7.2, -7.6, -0.0, -0.0, -0.0, 0.0, 3.4, 5.37, 3.45, 1.18, 4.0, 9.7, 13.86, 15.05, 12.27, 8.93, 6.98, 8.54, 8.15, 6.95, 7.27, 8.75, 10.12, 10.99, 7.82, -10.6, -5.81, -4.54, -4.29, -4.29, -1.55, 1.19, 6.63, 7.44, 6.7, 6.7, 9.19, 9.19, 9.19, 9.5, 9.5, 9.8, 9.8, 9.8, 10.09, 10.09, 10.09, 9.8, 9.82, 10.13, 10.13, 10.12, 10.42, 10.69, 11.28, 11.87, 11.87, 12.09, 12.16, 11.8, 12.09, 11.72, 11.52, 10.09, 9.5, 10.48, 9.42, 9.42, 9.73, 10.04, 9.78, 9.7, 9.84, 9.45, 9.27, 9.03, 8.82, 8.6, 8.54, 8.4, 8.91, 9.26, 9.83, 8.94, 7.97, 6.88, 6.79, 6.23, 5.6, 4.84, 3.79, 1.41, -0.0, -1.66, -3.48, -4.22, -5.36, -7.15, -8.49, -3.4, -2.4, -2.4, -0.0, 7.15, 3.6, 4.71, 4.71, 0.0, 0.0, 6.64, 12.08, 15.15, 9.33, 6.7, 7.81, 9.29, 10.28, 10.73, 11.18, 11.46, 11.76, 11.97, 12.18, 11.3, 6.32, -1.4, -3.2, -2.98, -1.55, -0.0, 3.72, 6.01, 6.28, 6.28, 9.19, 9.19, 9.19, 9.19, 9.19, 9.19, 9.19, 9.77, 10.09, 10.09, 10.09, 10.09, 9.82, 10.13, 10.13, 10.12, 10.42, 11.03, 10.99, 11.58, 12.16, 12.45, 12.45, 12.37, 12.27, 12.27, 11.52, 10.7, 10.46, 10.13, 9.77, 9.08, 9.14, 9.46, 9.97, 9.86, 10.0, 9.6, 9.45, 9.2, 9.03, 8.8, 8.99, 9.21, 9.11, 9.76, 9.83, 9.39, 8.87, 8.41, 7.5, 6.36, 6.23, 5.2, 4.46, 2.2, -0.0, -0.0, -1.8, -2.84, -7.15, -7.6, -0.0, -5.37, -5.06, -5.06, -5.06, -4.74, 8.05, 0.0, -3.6, -6.64, 2.28, 5.46, 11.21, 13.99, 12.07, 10.38, 10.0, 10.46, 11.13, 11.18, 11.62, 11.55, 11.53, 12.37, 13.28, 13.25, 11.06, 6.32, 1.41, -0.0, -0.0, -0.0, 4.11, 6.44, 6.28, 6.28, 8.58, 8.58, 8.58, 8.88, 9.17, 9.17, 9.48, 9.48, 10.09, 10.39, 10.39, 10.09, 10.12, 10.43, 10.12, 10.12, 10.42, 10.4, 10.99, 11.58, 11.92, 12.45, 12.45, 12.09, 12.37, 12.65, 12.09, 10.94, 10.43, 10.13, 10.12, 9.49, 9.82, 9.46, 9.97, 9.86, 9.86, 9.72, 9.72, 9.45, 9.2, 8.63, 8.8, 9.13, 9.33, 9.77, 9.83, 9.39, 9.39, 8.85, 8.41, 7.94, 7.45, 6.94, 5.94, 5.2, 2.2, -0.0, -0.0, -0.0, -2.0, -0.0, -0.0, -5.37, -5.37, -5.37, -6.71, -7.15, -7.21, -6.32, -6.32, -4.0, 6.64, 9.3, 11.97, 13.01, 12.75, 11.38, 11.99, 12.39, 12.07, 12.03, 11.88, 12.22, 12.42, 13.82, 14.71, 12.96, 10.62, 6.36, 5.01, 3.79, -0.0, 4.02, 4.92, 7.6, 7.6, 7.6, 8.56, 8.56, 8.56, 8.87, 8.87, 8.87, 9.48, 9.78, 10.39, 10.39, 10.73, 10.42, 10.4, 10.4, 10.12, 9.8, 10.12, 10.4, 10.99, 11.58, 11.58, 12.09, 12.45, 12.45, 12.37, 12.56, 12.27, 11.16, 10.35, 9.8, 10.12, 10.09, 10.04, 9.67, 9.97, 9.58, 9.86, 9.6, 9.83, 9.55, 9.45, 9.08, 8.82, 9.49, 9.64, 10.23, 10.28, 9.83, 9.39, 9.39, 8.94, 8.49, 8.05, 7.6, 6.94, 6.36, 5.2, 2.4, 2.0, -0.0, -0.0, -1.55, -5.69, -5.06, -0.0, -0.0, -6.8, -7.63, -8.05, -7.21, -7.6, -3.4, 9.33, 9.83, 12.48, 12.02, 11.57, 12.39, 14.47, 15.62, 13.83, 11.46, 10.41, 10.18, 10.58, 11.18, 11.18, 9.39, 5.31, 6.2, 6.17, 6.07, 5.36, 4.02, 3.58, 5.81, 8.06, 8.06, 8.24, 8.24, 8.87, 8.87, 8.87, 8.87, 9.48, 9.78, 10.39, 10.39, 10.42, 10.42, 10.4, 10.4, 10.12, 10.09, 9.8, 10.4, 10.99, 11.33, 11.58, 11.87, 12.09, 12.09, 12.37, 12.65, 12.27, 11.72, 10.59, 10.06, 10.12, 10.09, 10.04, 10.04, 10.13, 10.13, 9.74, 10.0, 9.6, 9.83, 9.55, 9.18, 8.91, 8.82, 8.94, 9.83, 10.24, 10.23, 9.83, 9.39, 8.94, 8.49, 8.05, 7.6, 7.6, 7.15, 5.94, 5.2, 2.0, 2.2, -0.0, -0.0, -5.37, -5.06, -0.0, -0.0, -3.97, -5.37, -7.63, -7.6, -7.6, -7.6, 6.64, 10.18, 12.37, 12.52, 10.75, 12.08, 15.34, 15.71, 13.18, 9.68, 7.97, 7.94, 8.05, 8.05, 7.6, 4.92, 4.92, 5.81, 6.26, 6.26, 4.92, 4.47, 3.39, 4.24, 6.94, 8.05, 8.87, 8.87, 8.87, 8.87, 8.87, 9.17, 9.48, 9.48, 10.09, 10.09, 10.09, 10.4, 10.4, 10.4, 10.4, 10.09, 10.09, 10.4, 10.99, 10.99, 11.58, 11.87, 11.87, 12.37, 12.37, 12.27, 11.9, 11.99, 10.94, 10.3, 9.46, 9.77, 9.73, 9.67, 9.86, 10.13, 9.58, 9.86, 9.86, 9.72, 9.45, 9.18, 8.48, 8.38, 8.49, 10.28, 11.02, 10.56, 10.04, 9.54, 8.85, 8.38, 7.94, 7.6, 7.6, 7.15, 6.71, 5.51, 4.0, 3.48, 2.2, -0.0, -0.0, -0.0, -0.0, -0.0, -3.6, -3.97, -3.4, -7.6, -7.15, -8.05, -0.0, 9.46, 13.11, 12.79, 10.18, 9.42, 12.73, 14.97, 12.21, 9.21, 8.43, 7.08, 4.92, 4.47, 5.36, 5.36, 5.81, 5.81, 5.81, 5.81, 5.36, 5.64, 4.66, 4.0, 5.2, 6.94, 8.87, 8.87, 8.58, 8.58, 8.88, 9.19, 9.19, 9.8, 9.8, 10.4, 10.4, 10.72, 10.4, 10.4, 9.8, 10.09, 9.77, 10.36, 10.99, 10.99, 10.99, 11.52, 11.52, 11.8, 12.0, 12.27, 11.9, 11.62, 11.23, 10.3, 9.71, 9.66, 9.42, 9.58, 9.48, 9.74, 9.74, 10.0, 9.86, 9.72, 9.6, 9.34, 8.67, 7.98, 8.85, 10.7, 11.76, 10.7, 9.63, 9.03, 8.6, 8.06, 7.89, 7.45, 7.6, 7.15, 6.71, 5.09, 4.66, 4.66, 3.48, 3.48, 1.7, -0.0, -0.0, -0.0, -3.2, -3.2, -5.37, -0.0, 7.6, -7.6, 8.94, 9.83, 10.32, 10.63, 9.36, 8.94, 10.55, 10.85, 10.55, 9.04, 7.74, 6.71, 5.81, 5.81, 6.71, 6.71, 6.26, 6.26, 5.81, 5.81, 5.81, 7.01, 6.07, 4.46, 4.29, 5.2, 8.87, 8.87, 8.87, 8.58, 8.58, 9.19, 9.19, 9.8, 10.12, 10.4, 10.4, 10.4, 10.4, 9.8, 9.77, 9.77, 10.09, 10.69, 10.4, 10.99, 11.28, 11.28, 11.52, 11.8, 11.8, 12.27, 12.27, 11.62, 10.96, 10.59, 9.94, 9.37, 9.3, 9.58, 9.48, 9.48, 9.74, 9.74, 10.0, 9.47, 9.6, 9.05, 8.8, 8.24, 8.63, 10.88, 10.6, 8.91, 7.81, 8.06, 8.06, 8.33, 7.89, 7.45, 7.6, 7.15, 6.71, 5.81, 5.2, 4.66, 4.09, 4.09, 5.06, -0.0, -0.0, -0.0, -0.0, -0.0, -0.0, 7.6, -8.05, -5.69, 0.0, 4.0, 8.94, 8.4, 10.2, 10.08, 9.39, 8.48, 4.43, 5.81, 4.85, 7.15, 7.6, 7.6, 7.15, 7.15, 7.6, 7.6, 6.71, 6.26, 6.26, 7.94, 7.89, 6.4, 5.36, 5.36, 8.56, 8.56, 8.87, 8.87, 8.87, 9.19, 9.19, 9.8, 9.8, 10.12, 10.4, 10.4, 10.4, 10.09, 9.77, 9.77, 10.36, 10.69, 10.69, 10.94, 10.94, 10.94, 11.23, 11.44, 11.8, 11.72, 11.72, 11.62, 11.07, 10.41, 10.23, 9.86, 9.86, 9.3, 9.21, 9.48, 9.48, 9.35, 9.35, 9.47, 9.47, 8.93, 9.05, 8.88, 9.65, 10.96, 9.75, 7.63, 7.31, 6.79, 7.5, 7.89, 7.89, 8.05, 7.6, 7.6, 6.71, 6.26, 5.81, 5.2, 5.2, 4.4, 3.48, 7.6, 5.37, 3.4, -0.0, -0.0, -0.0, 7.6, -5.69, -3.6, -4.2, 0.0, 4.2, 8.33, 8.94, 10.58, 8.82, 7.81, 7.21, 6.79, 8.43, 10.28, 10.22, 9.03, 7.37, 6.94, 7.1, 7.98, 7.98, 7.1, 7.1, 7.74, 7.89, 6.79, 6.79, 6.79, 8.56, 8.56, 8.87, 8.87, 8.87, 8.88, 9.19, 9.5, 9.8, 10.12, 10.4, 10.4, 10.4, 10.09, 9.77, 9.77, 10.69, 10.4, 10.94, 10.69, 10.94, 11.23, 11.23, 11.44, 11.44, 11.72, 11.72, 11.62, 11.07, 10.7, 10.41, 9.86, 9.86, 9.5, 9.76, 9.21, 9.1, 9.1, 9.35, 9.35, 9.07, 8.93, 8.76, 8.88, 9.27, 10.15, 9.75, 8.63, 8.29, 7.98, 7.08, 7.06, 7.6, 7.6, 7.6, 7.6, 7.15, 6.71, 6.26, 5.64, 5.2, 5.2, 4.66, 7.6, 5.37, 5.37, -0.0, -0.0, -0.0, 7.6, -5.69, -3.8, -2.83, 0.0, 3.49, 5.59, 8.22, 9.83, 10.93, 10.96, 10.66, 11.16, 13.19, 13.32, 12.52, 9.6, 7.07, 5.58, 5.43, 6.7, 6.7, 6.7, 6.7, 8.0, 7.67, 6.98, 6.98, 6.98, 8.56, 8.56, 8.87, 8.87, 8.87, 9.17, 9.19, 9.19, 9.8, 9.8, 10.12, 10.12, 9.8, 9.77, 9.77, 9.77, 10.69, 10.69, 10.94, 10.69, 10.65, 10.88, 11.23, 11.23, 11.44, 11.72, 11.72, 11.62, 11.07, 10.7, 10.79, 10.41, 9.86, 9.5, 9.76, 9.21, 9.1, 9.1, 9.1, 8.96, 8.82, 9.07, 8.93, 9.05, 8.88, 9.34, 9.18, 8.91, 8.63, 8.33, 8.0, 7.54, 7.15, 7.15, 7.6, 7.6, 7.15, 6.71, 6.26, 6.14, 5.7, 5.2, 5.2, 5.09, 8.05, 5.69, -0.0, -0.0, -0.0, -7.6, -6.32, -2.69, 0.0, 2.28, 3.65, 5.63, 8.4, 9.76, 11.14, 11.41, 12.56, 14.82, 16.25, 15.29, 13.37, 11.18, 5.63, 4.71, 5.15, 5.15, 7.07, 5.43, 6.21, 7.07, 6.63, 5.31, 5.31, 5.31, 8.56, 8.56, 8.87, 8.87, 8.87, 9.17, 9.48, 9.19, 9.8, 9.8, 9.8, 10.12, 9.77, 9.77, 9.77, 9.77, 10.69, 10.69, 10.69, 10.69, 10.65, 10.88, 10.88, 11.23, 11.44, 11.72, 11.72, 11.62, 11.07, 10.7, 10.51, 10.15, 10.41, 10.04, 9.76, 9.38, 9.48, 9.1, 8.72, 8.82, 8.82, 8.82, 8.93, 8.76, 9.05, 9.34, 9.18, 8.91, 8.48, 8.63, 8.33, 7.85, 7.54, 7.6, 7.15, 7.15, 7.15, 7.15, 6.71, 6.14, 5.64, 5.64, 5.2, 5.2, 5.51, 6.01, 5.69, -0.0, -0.0, -7.6, -5.69, -3.8, 0.0, 0.0, 4.2, 6.64, 8.91, 10.28, 10.04, 8.07, 9.92, 14.78, 17.57, 15.71, 12.58, 10.27, 9.2, 4.6, 4.4, 4.83, 5.72, 3.48, 4.43, 4.58, 4.75, 3.4, 3.4, 3.4, 8.56, 8.56, 8.87, 8.87, 9.17, 9.48, 9.19, 9.19, 9.48, 9.8, 9.8, 9.8, 9.77, 9.72, 10.06, 9.77, 10.69, 10.69, 10.69, 10.36, 10.65, 10.65, 10.88, 11.23, 11.44, 11.72, 11.72, 11.35, 11.44, 11.07, 10.51, 10.51, 10.79, 10.41, 10.04, 10.13, 9.76, 9.1, 9.1, 8.82, 8.82, 8.82, 8.93, 8.54, 8.66, 8.93, 8.93, 8.67, 8.48, 8.63, 8.14, 7.85, 7.85, 7.98, 7.15, 7.15, 7.15, 7.01, 6.58, 6.71, 6.07, 5.64, 5.2, 5.2, 4.8, 6.01, 5.37, -0.0, 8.05, -7.6, 8.49, -8.49, -8.49, -8.94, -9.39, -0.0, 8.4, 9.13, 6.95, 4.88, 6.44, 13.38, 17.36, 15.8, 13.54, 11.38, 10.73, 4.4, 1.75, 3.79, 4.09, 3.48, 2.98, 2.8, 2.12, 0.0, 0.0, 0.0, 8.56, 8.56, 8.87, 9.17, 9.17, 9.48, 9.19, 9.19, 9.48, 9.8, 9.8, 9.8, 9.77, 9.72, 9.77, 10.09, 10.4, 10.69, 10.69, 10.36, 10.65, 10.65, 10.88, 10.88, 11.72, 11.72, 11.72, 11.35, 11.62, 11.07, 11.07, 10.51, 10.79, 10.41, 10.41, 10.3, 10.3, 10.02, 9.63, 9.35, 8.82, 8.82, 8.54, 8.54, 8.66, 8.66, 8.4, 8.67, 8.48, 8.4, 8.14, 8.33, 7.85, 8.0, 7.6, 7.15, 6.71, 6.71, 6.71, 6.26, 6.26, 5.64, 5.2, 4.77, 4.66, 5.69, 5.37, 5.37, 8.05, -5.37, -7.6, -7.6, -8.94, -8.94, -9.39, -0.0, 6.64, 5.21, 4.2, 5.21, 6.95, 9.97, 13.91, 14.31, 13.82, 11.88, 9.13, 0.0, 0.0, 5.36, 5.81, 3.79, 1.83, 1.23, 0.0, -3.2, -3.2, -3.2, 8.56, 8.56, 8.87, 9.17, 9.17, 9.48, 9.19, 9.19, 9.19, 9.8, 9.8, 9.8, 9.77, 9.77, 9.77, 10.09, 10.4, 10.69, 10.36, 10.36, 10.65, 10.65, 11.16, 11.16, 11.52, 11.72, 11.72, 11.35, 11.16, 11.07, 11.07, 10.87, 10.51, 10.41, 10.41, 10.04, 10.3, 9.76, 10.02, 9.63, 9.35, 8.82, 9.07, 8.54, 8.66, 8.66, 8.4, 8.67, 8.91, 8.4, 8.19, 8.14, 8.29, 7.85, 7.54, 7.6, 7.15, 6.71, 6.26, 6.26, 6.26, 5.81, 5.2, 4.77, 4.66, 6.71, 6.71, 5.06, -0.0, -7.2, -6.01, -6.32, -8.94, -8.94, -8.94, -8.94, -0.0, -0.0, 1.75, 5.59, 6.32, 7.21, 8.22, 10.43, 13.02, 12.87, -1.7, -4.22, -4.66, -0.0, 2.6, 5.81, 0.0, -1.41, -3.76, -4.74, -4.74, -4.74, 8.56, 8.56, 8.87, 8.87, 9.17, 9.17, 9.48, 9.19, 9.19, 9.8, 9.8, 9.8, 9.77, 9.77, 9.77, 9.8, 10.4, 10.36, 10.36, 10.65, 10.65, 10.65, 11.16, 11.16, 11.16, 11.72, 11.35, 11.35, 11.16, 11.16, 11.07, 10.87, 10.51, 10.15, 10.41, 10.04, 10.13, 9.76, 10.02, 9.63, 9.1, 8.96, 9.07, 8.54, 8.8, 8.27, 8.52, 8.67, 8.91, 8.4, 8.63, 8.14, 8.33, 7.85, 7.98, 7.54, 7.15, 7.15, 6.71, 6.26, 5.81, 5.81, 5.36, 5.36, 4.92, 6.26, 6.26, -0.0, -5.06, -6.8, -5.69, -0.0, -0.0, -8.94, -8.94, -8.49, -6.01, -3.8, -0.0, 3.8, 6.01, 5.31, 6.32, 8.72, 13.57, 11.18, 3.22, -3.16, -4.0, -4.46, 6.26, 6.71, -1.7, -3.79, -4.65, -4.65, -4.65, -4.65, 8.56, 8.56, 8.56, 8.87, 8.87, 9.17, 9.17, 9.48, 9.19, 9.8, 9.8, 9.77, 9.48, 9.77, 10.09, 9.8, 10.09, 10.36, 10.36, 10.3, 10.3, 10.65, 10.88, 11.16, 11.16, 11.16, 11.16, 11.16, 11.16, 11.16, 10.8, 10.87, 10.51, 10.51, 10.41, 10.04, 10.13, 9.76, 9.63, 9.63, 9.1, 9.35, 9.2, 8.68, 8.8, 8.52, 8.52, 8.76, 8.91, 8.48, 8.63, 8.19, 8.33, 8.29, 7.81, 7.98, 7.54, 7.08, 6.71, 6.71, 5.81, 5.81, 5.36, 5.36, 5.36, 5.09, 4.74, 6.26, -4.43, -6.0, -7.15, -5.69, -0.0, -0.0, -8.94, -8.94, -8.49, -7.6, -0.0, 3.8, 5.1, 6.01, 6.28, 8.22, 15.65, 12.9, 5.37, -1.33, -2.84, -2.79, 0.0, 1.84, 0.0, -2.2, -2.95, -2.98, -2.98, -2.98, 8.56, 8.56, 8.56, 8.87, 8.87, 8.87, 9.17, 9.48, 9.19, 9.48, 9.48, 9.48, 9.48, 9.77, 9.8, 9.8, 10.09, 10.09, 9.77, 10.3, 10.3, 10.65, 10.88, 10.88, 11.16, 11.16, 11.16, 11.16, 11.16, 10.8, 10.8, 10.51, 10.51, 10.15, 10.15, 9.86, 10.13, 9.76, 9.63, 9.48, 9.35, 9.35, 9.07, 8.68, 8.8, 8.63, 8.52, 8.76, 8.67, 8.91, 8.63, 8.63, 8.14, 8.29, 7.85, 7.81, 7.37, 7.54, 7.08, 6.64, 6.2, 5.81, 5.81, 5.81, 5.81, 5.51, 4.74, 6.26, 6.71, -4.74, -7.15, -3.4, 0.0, 8.49, -8.94, -8.94, -8.49, -6.01, -0.0, -0.0, 3.8, 6.01, 6.9, 14.71, 16.54, 14.25, 6.17, -1.55, -1.6, -1.8, -0.7, 0.0, 0.0, -0.96, -1.08, -2.2, -2.2, -2.2, 8.56, 8.56, 8.56, 8.56, 8.87, 8.87, 9.17, 9.48, 9.17, 9.17, 9.17, 9.48, 9.77, 9.8, 9.8, 9.77, 9.77, 9.77, 9.77, 10.06, 10.3, 10.65, 10.88, 10.88, 11.16, 11.16, 11.16, 11.16, 11.16, 11.07, 10.87, 10.51, 10.3, 9.94, 9.94, 9.86, 9.86, 9.76, 9.63, 9.48, 9.35, 9.2, 9.07, 8.68, 8.8, 8.63, 8.52, 8.34, 8.67, 8.91, 8.4, 8.63, 8.14, 8.29, 8.29, 7.81, 7.37, 7.37, 6.94, 6.64, 6.64, 6.2, 6.17, 6.17, 6.14, 5.6, 5.2, 5.2, 7.15, -0.0, 7.6, 0.0, 0.0, 0.0, 0.0, -8.49, -8.49, 8.05, 8.49, -0.0, -0.0, 5.69, 8.17, 13.67, 15.49, 13.77, 5.95, -1.96, -1.11, -0.57, -0.63, 0.0, 0.0, 0.0, 0.0, 0.0, 0.0, 0.0, 8.56, 8.56, 8.56, 8.56, 8.56, 8.87, 8.87, 9.17, 9.17, 9.17, 9.17, 9.48, 9.8, 9.8, 9.77, 9.77, 9.77, 9.77, 9.77, 10.06, 10.3, 10.65, 10.65, 10.88, 11.16, 11.16, 11.16, 11.16, 10.8, 11.07, 10.87, 10.51, 9.94, 9.94, 9.94, 9.86, 9.86, 9.76, 9.21, 9.1, 9.35, 8.82, 9.07, 8.54, 8.8, 8.52, 8.52, 8.67, 8.25, 8.82, 8.4, 8.56, 8.14, 8.06, 8.06, 7.63, 7.53, 7.37, 7.37, 6.88, 6.45, 6.45, 5.94, 5.94, 6.23, 6.23, 6.0, 5.51, 7.15, 7.15, 8.05, 8.05, 0.0, -1.95, -2.4, -3.4, -5.69, 0.0, 0.0, 8.05, 8.05, 8.05, 6.36, 10.27, 12.14, 10.0, 6.01, -1.7, -0.57, -0.57, 0.0, 0.0, 0.0, 1.23, 1.41, 4.92, 4.92, 4.92, 8.56, 8.56, 8.56, 8.56, 8.56, 8.56, 8.56, 8.85, 9.46, 9.17, 9.48, 9.48, 9.8, 9.8, 9.48, 9.77, 9.77, 9.77, 9.77, 10.06, 10.06, 10.3, 10.65, 10.88, 11.16, 11.16, 11.16, 10.8, 11.07, 11.07, 10.51, 10.51, 9.94, 9.94, 9.66, 9.66, 9.3, 9.58, 9.21, 9.1, 8.96, 8.82, 8.68, 8.8, 8.8, 8.27, 8.52, 8.67, 8.67, 8.55, 8.82, 8.3, 8.56, 8.06, 8.06, 7.63, 7.53, 7.12, 7.12, 6.7, 6.88, 6.88, 6.45, 6.36, 6.36, 6.23, 6.23, 6.36, 6.26, 7.6, 7.6, 8.05, 0.0, -4.71, -6.01, -6.01, 0.0, 0.0, 0.0, 0.0, 0.0, 7.6, 5.81, 7.28, 9.6, 9.13, 7.15, -2.0, -1.16, 0.0, 0.0, 0.0, 0.0, 2.49, 3.22, 5.81, 5.81, 5.81, 8.54, 8.54, 8.85, 8.85, 9.17, 9.17, 9.17, 9.17, 9.78, 9.48, 9.48, 9.48, 9.48, 9.48, 9.48, 9.48, 9.77, 9.77, 9.77, 10.06, 10.06, 10.3, 10.3, 10.65, 10.59, 10.8, 10.8, 10.8, 11.07, 11.07, 10.51, 10.15, 10.23, 9.86, 9.66, 9.66, 9.58, 9.58, 9.21, 8.93, 8.82, 8.82, 9.07, 8.54, 8.8, 8.66, 8.52, 8.4, 8.67, 8.55, 8.14, 8.3, 8.3, 8.06, 8.06, 8.06, 7.53, 7.53, 7.12, 7.12, 6.57, 6.57, 6.57, 6.4, 6.4, 6.13, 6.64, 6.4, 4.74, 7.15, 7.6, 7.6, -3.4, -5.37, -6.32, -5.69, 0.0, 0.0, 0.0, 0.0, 0.0, 2.4, 5.37, 6.71, 9.26, 9.26, 7.15, 0.0, -2.2, -1.7, -2.16, -1.49, 1.4, 3.68, 4.29, 7.6, 7.6, 7.6, 8.85, 8.85, 8.85, 8.85, 9.48, 9.48, 9.17, 9.48, 9.78, 9.48, 9.48, 9.48, 9.48, 9.48, 9.48, 9.48, 9.77, 9.77, 10.06, 10.06, 10.06, 10.06, 10.3, 10.3, 10.59, 10.59, 10.59, 10.59, 10.87, 10.51, 10.51, 10.41, 9.86, 9.86, 9.66, 9.58, 9.58, 9.01, 9.3, 8.93, 8.93, 8.82, 9.07, 8.68, 8.8, 8.8, 8.93, 8.52, 8.4, 8.67, 8.14, 8.0, 8.3, 8.3, 7.76, 7.76, 7.2, 7.2, 7.2, 6.8, 6.4, 6.21, 6.57, 6.4, 6.4, 6.13, 6.13, 6.4, 6.4, 0.0, 0.0, 0.0, -3.2, -5.95, -4.22, -2.4, 0.0, 0.0, 0.0, -2.69, -2.54, 0.0, 3.8, 6.4, 8.94, 10.28, 9.83, 6.58, 4.43, -4.43, -3.22, -1.73, 1.49, 4.14, 5.1, 8.49, 8.49, 8.49, 9.17, 9.17, 9.17, 8.85, 9.48, 9.48, 9.48, 9.78, 9.48, 9.48, 9.48, 9.48, 9.48, 9.17, 9.17, 9.48, 9.48, 9.77, 10.06, 10.06, 10.06, 10.06, 10.06, 10.3, 10.59, 10.59, 10.59, 10.51, 10.51, 10.51, 10.15, 10.41, 9.86, 9.86, 9.58, 9.58, 9.37, 9.01, 9.3, 8.93, 8.93, 8.82, 8.82, 9.07, 8.93, 8.8, 8.8, 8.93, 8.52, 8.4, 8.4, 8.0, 8.0, 8.0, 7.76, 7.76, 7.2, 7.2, 7.2, 6.8, 6.8, 6.6, 6.21, 5.95, 5.95, 5.59, 6.13, 6.08, 6.32, 5.06, 0.0, 0.0, 0.0, 0.0, -3.2, -1.84, -1.95, -3.6, -5.69, -2.69, -2.69, 0.0, 3.8, 6.44, 8.91, 11.06, 11.18, 9.29, 8.38, 7.63, 0.0, 0.0, 2.17, 6.32, 8.67, 8.33, 8.33, 8.33, 9.17, 9.17, 9.17, 9.15, 9.15, 9.48, 9.76, 9.46, 9.48, 9.48, 9.48, 9.48, 9.48, 9.17, 9.17, 9.17, 9.46, 9.46, 9.72, 9.72, 9.72, 9.72, 10.06, 10.06, 10.59, 10.23, 10.23, 10.51, 10.51, 10.15, 10.41, 9.86, 9.86, 9.76, 9.58, 9.58, 9.01, 9.3, 9.3, 8.93, 8.93, 9.2, 8.82, 8.82, 8.93, 8.93, 8.8, 8.66, 8.27, 8.11, 8.11, 7.85, 7.67, 8.0, 7.42, 7.42, 7.42, 6.82, 6.82, 6.82, 6.44, 6.18, 6.18, 6.32, 6.32, 5.93, 5.93, 6.08, 6.44, 6.32, 3.0, 0.0, 6.71, 7.6, 6.71, -3.4, -5.37, -8.05, -5.69, -3.6, -2.69, 0.0, 3.15, 5.03, 8.0, 11.06, 11.53, 10.73, 9.83, 9.83, 8.77, 7.6, 8.0, 8.49, 8.38, 8.06, 8.06, 8.06, 9.17, 9.17, 9.5, 9.8, 9.48, 9.48, 9.76, 9.46, 9.46, 9.48, 9.48, 9.48, 9.48, 9.48, 9.46, 9.46, 9.46, 9.46, 9.46, 9.72, 9.72, 9.72, 9.72, 10.01, 10.23, 10.23, 10.51, 10.51, 10.15, 10.15, 10.23, 9.86, 9.5, 9.76, 9.58, 9.21, 9.21, 9.01, 8.93, 8.93, 8.93, 9.2, 9.2, 9.2, 8.65, 8.65, 8.54, 8.38, 8.66, 8.27, 8.11, 7.92, 7.32, 7.67, 7.44, 7.42, 7.42, 7.2, 6.82, 6.82, 6.82, 6.18, 6.18, 5.84, 5.84, 5.93, 5.93, 5.69, 6.44, 5.37, 4.74, 2.6, 5.36, 7.6, 6.26, -6.4, -5.95, -6.8, -5.37, -3.4, 0.0, 0.0, 2.54, 5.03, 7.07, 9.97, 10.66, 10.28, 9.83, 9.39, 9.39, 8.49, 8.49, 8.41, 8.17, 7.6, 7.6, 7.6, 9.17, 9.17, 9.5, 9.8, 9.48, 9.48, 9.76, 9.46, 9.46, 9.48, 9.48, 9.48, 9.48, 9.48, 9.46, 9.46, 9.46, 9.46, 9.46, 9.72, 9.72, 9.72, 9.72, 10.01, 10.23, 10.23, 10.51, 10.51, 10.15, 10.15, 10.23, 9.86, 9.5, 9.76, 9.58, 9.21, 9.21, 9.01, 8.93, 8.93, 8.93, 9.2, 9.2, 9.2, 8.65, 8.65, 8.54, 8.38, 8.66, 8.27, 8.11, 7.92, 7.32, 7.67, 7.44, 7.42, 7.42, 7.2, 6.82, 6.82, 6.82, 6.18, 6.18, 5.84, 5.84, 5.93, 5.93, 5.69, 6.44, 5.37, 4.74, 2.6, 5.36, 7.6, 6.26, -6.4, -7.21, -6.8, -5.37, -3.4, 0.0, 0.0, 2.54, 4.46, 6.7, 8.37, 9.33, 9.83, 9.83, 9.77, 9.54, 9.11, 8.17, 8.17, 8.17, 8.06, 8.06, 8.06]}, {"header": {"dx": 0.06612293990616946, "dy": 0.0552356325346848, "nx": 98, "ny": 59, "la1": 35.046912555036876, "la2": 31.78801023549047, "lo1": -121.43107172385933, "lo2": -114.95102361305473, "refTime": "2026040808", "parameterCategory": 1, "parameterNumber": 3}, "data": [-11.88, -11.88, -11.88, -11.96, -11.72, -11.45, -11.52, -11.2, -11.6, -11.33, -10.82, -9.46, -10.8, -10.73, -9.83, -8.72, -6.64, -5.53, -4.47, -4.75, -3.4, -2.99, -2.12, -2.49, -3.45, -4.43, -5.01, -6.07, -6.26, -6.26, -6.36, -4.11, 0.0, 0.0, 0.88, 0.0, 0.0, 0.0, -1.1, -1.32, 0.0, 0.0, 0.0, -3.98, -7.28, -7.03, -8.53, -10.13, -10.38, -8.06, -6.92, 10.96, 10.28, 10.28, 9.46, 8.18, 7.27, 5.98, 5.45, 4.8, 3.77, 2.82, 4.4, 5.21, 6.32, 4.83, 2.99, 2.98, 2.7, 3.29, 3.32, 2.82, 1.07, 0.0, 1.39, 2.39, 3.08, 2.28, 1.71, 0.0, -0.0, 1.4, 1.14, -0.0, -0.0, -0.0, -0.0, 0.0, -1.98, -1.84, -3.27, -5.06, -6.41, -6.92, -7.18, -6.44, -4.8, -3.09, -11.52, -12.09, -11.88, -11.88, -11.96, -11.72, -11.8, -11.49, -11.52, -11.26, -10.38, -10.12, -8.22, -7.59, -4.8, -8.8, -8.0, -6.95, -5.44, -4.36, -4.94, -4.21, -2.99, -2.82, -2.49, -3.0, -4.02, -4.74, -6.0, -6.51, -6.71, -6.26, 0.0, 1.84, 2.16, 1.03, 1.01, 0.0, 0.0, -2.4, -2.99, -3.65, -5.75, -8.85, -10.12, -12.01, -12.36, -12.36, -11.13, -8.66, -4.15, 10.28, 10.28, 9.74, 9.04, 8.55, 7.27, 6.69, 5.45, 4.36, 4.18, 3.61, 5.06, 6.64, 6.32, 5.03, 4.21, 3.14, 2.7, 3.25, 3.19, 3.42, 2.0, 0.0, 0.0, 2.46, 2.71, 2.28, 1.71, 0.0, -0.0, 1.4, 1.14, -0.0, -0.0, -0.0, -0.0, 0.0, -1.98, -1.84, -3.27, -5.06, -6.41, -6.92, -7.18, -6.44, -4.8, -3.09, -11.52, -11.88, -12.09, -11.88, -11.64, -11.39, -11.8, -11.8, -11.87, -11.25, -10.29, -8.67, -9.08, -6.71, -4.4, -2.39, -6.95, -8.43, -6.95, -5.72, -5.0, -5.46, -5.2, -4.71, -2.99, -1.32, -0.0, -1.63, -4.74, -5.72, -6.08, -5.95, -4.74, 0.0, 4.43, 1.84, 1.01, 0.0, -1.05, -3.52, -5.72, -8.22, -10.92, -13.95, -15.27, -15.88, -15.08, -13.4, -9.85, -6.87, 6.95, 9.13, 9.7, 9.33, 8.63, 8.54, 8.0, 6.69, 5.45, 4.18, 3.82, 4.6, 5.46, 6.64, 6.32, 4.94, 4.98, 4.99, 4.8, 4.62, 5.06, 4.21, 1.84, 0.0, -1.32, 0.0, 0.0, 1.71, 0.77, 0.0, -4.6, -0.0, -0.0, -0.0, -0.0, -0.0, 1.7, 0.0, -2.6, -3.99, -5.14, -6.84, -7.78, -7.78, -7.72, -6.59, -3.79, -2.8, -11.52, -11.52, -12.09, -12.09, -11.88, -11.64, -11.73, -11.73, -11.45, -11.18, -9.82, -9.14, -9.67, -8.03, -7.27, -6.17, -5.29, -9.6, -8.93, -6.48, -4.68, -4.22, -5.2, -5.38, -4.34, -1.67, -0.0, -0.0, -2.12, -6.08, -6.9, -6.98, -5.31, -4.71, -7.6, -2.54, -1.67, -1.62, -3.82, -6.67, -9.8, -13.26, -14.97, -14.3, -13.26, -12.15, -10.75, -6.88, -5.21, 1.75, 6.63, 8.05, 8.91, 9.03, 9.11, 8.54, 7.56, 6.4, 5.45, 3.82, 3.25, 4.6, 6.3, 7.56, 6.79, 6.18, 5.46, 5.9, 7.36, 7.12, 6.88, 5.48, 2.89, 0.0, -4.6, -6.01, -4.4, -1.65, 0.0, -1.03, -3.8, -2.6, -2.26, -0.0, -0.0, -0.0, 0.0, -2.6, -4.19, -6.15, -6.94, -6.84, -7.9, -7.59, -5.59, -3.72, -3.47, -2.64, -11.52, -11.52, -11.88, -12.09, -11.88, -11.33, -12.0, -11.73, -11.45, -10.82, -10.04, -9.14, -10.0, -8.82, -8.23, -9.2, -8.38, -7.9, -11.02, -7.9, -5.98, -3.6, -3.6, -4.44, -4.34, -3.7, -3.15, -3.6, -5.69, -7.37, -7.89, -8.15, -8.42, -9.03, -9.83, -9.33, -9.2, -8.22, -9.8, -12.56, -13.26, -11.94, -9.8, -6.63, -4.24, -2.42, -1.14, 0.0, 1.26, 4.21, 4.96, 6.98, 8.48, 9.03, 8.63, 7.56, 6.3, 5.72, 4.99, 3.82, 2.95, 5.1, 7.56, 7.47, 7.06, 6.04, 5.46, 5.63, 7.13, 7.64, 6.88, 5.21, 5.09, 4.47, 0.0, -7.2, -6.91, -4.5, -2.22, -0.83, -1.19, -3.48, -2.16, -1.18, -0.81, -2.98, -4.46, -5.03, -7.65, -8.49, -7.36, -6.59, -7.13, -4.43, -4.43, -3.76, -2.8, -2.17, -11.52, -11.52, -11.52, -12.09, -11.8, -11.58, -11.93, -11.64, -11.72, -11.09, -10.04, -8.55, -9.2, -7.27, -7.59, -8.58, -9.2, -9.08, -11.03, -9.82, -8.12, -6.79, -6.44, -4.2, -4.44, -4.66, -6.01, -7.15, -8.3, -9.39, -8.49, -8.94, -8.6, -10.75, -12.05, -11.6, -11.36, -11.42, -11.87, -13.34, -12.94, -10.79, -5.75, 0.0, 0.0, 0.0, 0.0, 0.0, 0.93, 2.28, 2.97, 4.6, 7.67, 8.91, 8.05, 6.95, 6.3, 5.46, 5.21, 3.67, 3.65, 5.46, 7.56, 6.64, 5.89, 5.06, 4.78, 5.2, 4.94, 4.6, 3.44, 3.57, 4.66, 5.81, 4.6, -2.28, -8.0, -5.21, -2.04, 0.0, -1.05, -6.26, -5.37, -4.75, -5.59, -8.05, -7.53, -9.52, -10.63, -9.97, -7.9, -8.32, -6.64, -6.36, -4.74, -4.74, -2.99, -3.11, -11.52, -11.52, -11.52, -11.88, -11.8, -11.58, -11.58, -11.33, -11.04, -11.09, -9.82, -8.3, -8.23, -4.6, -3.68, -6.44, -7.9, -8.53, -8.53, -12.52, -9.64, -10.12, -10.48, -9.8, -9.36, -8.94, -9.67, -9.8, -10.05, -8.6, -9.83, -7.44, -6.64, -8.41, -10.73, -12.07, -12.49, -11.39, -10.23, -10.62, -12.33, -11.91, -11.87, -9.17, -5.99, -3.81, -2.62, -0.82, 0.0, 0.0, 0.0, 3.49, 6.64, 8.05, 7.33, 6.64, 5.86, 5.46, 3.45, 2.83, 3.99, 5.21, 5.86, 4.44, 3.99, 3.63, 3.99, 2.17, 1.25, 0.0, 0.0, 0.0, 0.86, 1.02, 2.01, 1.2, -4.38, -6.01, 0.0, 0.0, -1.07, -5.93, -8.43, -8.87, -10.28, -10.62, -11.37, -12.33, -11.97, -11.12, -10.43, -10.04, -6.58, -0.0, -5.06, -5.24, -4.94, -4.56, -11.16, -11.52, -11.52, -11.52, -11.8, -11.8, -11.58, -11.58, -11.29, -10.73, -9.4, -8.8, -8.23, -6.71, -4.48, -3.98, -5.98, -7.28, -6.94, -4.55, -7.78, -12.04, -8.68, -12.52, -12.89, -12.17, -12.21, -12.21, -10.16, -9.7, -9.55, -11.18, -10.38, -9.96, -10.41, -12.05, -12.07, -10.93, -9.86, -8.73, -10.4, -10.84, -12.75, -13.57, -11.77, -8.75, -5.13, -3.11, -1.62, -2.1, -1.33, 1.84, 6.95, 8.18, 8.18, 7.56, 6.3, 5.72, 3.99, 3.11, 2.97, 3.7, 2.97, 1.58, 2.82, 2.99, 2.04, 0.0, -1.14, -1.65, -1.6, -1.84, -1.7, -2.53, -2.81, -0.89, 2.45, 5.4, 3.44, 1.19, 0.0, -6.92, -8.24, -9.11, -10.62, -11.71, -11.72, -12.21, -12.3, -10.99, -10.0, -5.32, -1.98, -1.18, -6.94, -5.58, -5.24, -5.1, -10.88, -11.52, -11.52, -11.52, -11.58, -11.8, -11.58, -11.58, -11.29, -10.59, -9.97, -10.68, -12.46, -12.3, -9.62, -7.82, -8.1, -7.54, -5.8, -3.96, -2.45, -2.54, -11.6, -10.8, -10.28, -9.48, -8.8, -9.67, -9.36, -9.86, -11.4, -12.96, -13.86, -13.59, -11.71, -10.58, -11.12, -10.68, -9.11, -8.8, -9.75, -10.7, -12.18, -11.76, -11.21, -10.75, -10.79, -8.58, -6.05, -4.71, -4.05, 1.84, 8.05, 8.18, 7.64, 6.64, 5.63, 4.99, 3.82, 2.7, 2.7, 2.17, 0.0, 0.0, 5.69, 3.8, 1.04, 0.0, -1.4, -2.99, -2.21, -2.28, -3.19, -3.6, -3.07, -0.98, 0.0, 2.02, 1.97, 1.89, 1.93, -3.76, -7.47, -7.73, -8.67, -9.6, -9.74, -10.0, -10.18, -9.74, -5.7, -1.7, -2.11, -5.24, -6.71, -5.21, -6.11, -5.69, -10.88, -11.16, -11.52, -11.52, -11.58, -11.58, -11.8, -11.58, -11.52, -10.59, -10.61, -11.3, -11.06, -12.97, -13.44, -12.6, -12.79, -13.19, -12.81, -11.99, -12.04, -12.04, -9.8, -13.15, -9.2, -7.64, -6.52, -7.59, -10.02, -11.21, -12.52, -14.3, -14.3, -12.52, -11.18, -10.18, -7.67, -6.8, -7.81, -8.67, -10.25, -10.75, -7.4, -6.79, -6.71, -7.15, -7.15, -7.74, -7.44, -5.59, -2.83, 6.32, 7.33, 7.21, 7.13, 6.48, 5.95, 4.15, 2.94, 1.84, 1.76, 0.76, 0.0, 2.4, 7.07, 3.15, 1.04, 0.85, 0.0, -1.67, -2.69, -3.16, -2.93, -2.82, -1.52, -0.89, -1.05, -1.94, -1.7, -0.86, 0.0, 0.87, -3.68, -6.6, -6.0, -6.4, -6.82, -6.01, -5.03, -2.6, -0.0, -0.0, -4.11, -5.6, -6.71, -5.82, -5.69, -4.58, -10.88, -11.16, -11.29, -11.64, -11.33, -11.33, -11.58, -11.58, -11.52, -10.87, -10.59, -11.63, -11.42, -12.25, -13.57, -13.99, -15.04, -14.99, -14.99, -16.43, -17.39, -17.43, -16.44, -13.57, -11.71, -6.52, -8.23, -8.72, -11.12, -13.37, -12.96, -12.85, -12.07, -11.05, -10.96, -10.73, -9.8, -7.64, -6.16, -6.79, -7.15, -6.17, 4.74, 6.8, 4.22, -0.0, -0.0, 1.58, 1.67, -0.0, -0.0, 8.0, 6.32, 5.59, 5.46, 5.7, 3.97, 2.93, 1.0, 0.0, 0.0, 0.0, 0.0, 4.96, 7.07, 4.37, 3.45, 2.97, 1.14, -1.32, -3.3, -3.85, -3.82, -3.19, -1.7, -1.7, -2.59, -4.2, -4.4, -4.49, -4.04, -1.73, 0.0, -4.1, -8.3, -6.13, -5.37, -3.97, -1.72, 0.0, 0.0, -2.0, -4.92, -5.7, -6.61, -5.49, -3.97, -2.26, -10.88, -10.65, -11.29, -11.64, -11.33, -11.33, -11.33, -11.64, -11.52, -11.07, -10.87, -11.53, -12.05, -11.44, -10.24, -10.29, -11.2, -13.75, -15.19, -15.84, -14.9, -13.41, -12.02, -12.14, -6.8, -4.43, -4.43, -2.53, -4.98, -6.2, -8.49, -6.17, -6.26, -5.94, -10.35, -10.28, -10.02, -6.99, -7.6, -0.0, 1.84, 3.4, 6.0, 7.21, 4.22, 2.49, 3.4, 3.4, 3.6, -0.0, -5.37, -8.05, 0.0, 1.58, 2.54, 1.84, 2.71, 1.98, 0.0, -1.02, -1.58, -1.2, 0.0, 8.94, 6.01, 4.6, 4.8, 4.32, 2.33, -1.28, -3.51, -3.85, -3.61, -2.71, -1.84, -2.61, -2.71, -4.99, -6.31, -6.77, -6.15, -3.82, -0.96, 1.34, 0.0, -4.2, -5.59, -4.71, -3.52, -0.89, -1.6, -1.94, -2.0, -4.8, -4.43, -4.19, -2.66, 0.0, -10.65, -10.65, -11.29, -11.33, -11.33, -11.33, -11.33, -11.29, -11.52, -11.16, -11.16, -11.6, -11.96, -12.07, -11.44, -9.89, -9.16, -9.62, -11.44, -12.13, -11.5, -9.75, -8.29, -5.75, -2.95, -2.2, -0.0, 4.29, 4.43, -0.0, -1.41, 3.22, 5.4, 5.81, -5.2, -5.94, -6.51, 0.0, 7.6, 5.37, -0.0, -3.72, -5.94, -5.81, -5.6, -4.65, -5.01, -5.72, -5.37, -6.8, -6.36, -7.08, -7.15, -6.13, -5.36, -3.49, -1.32, 1.45, 0.0, 0.0, -3.8, -4.0, 0.0, -0.0, 0.0, 0.0, 3.68, 5.7, 6.2, 3.68, 0.0, -3.11, -2.17, -1.95, -2.7, -3.29, -4.17, -5.14, -6.2, -5.95, -4.87, -4.71, -4.68, -4.51, 0.0, 0.0, -2.95, -5.86, -6.14, -3.8, -1.73, -1.3, -1.27, -0.96, -2.12, -1.98, -1.32, 0.0, -10.65, -10.65, -10.65, -10.99, -11.33, -10.99, -11.23, -11.23, -11.52, -11.52, -11.52, -11.52, -11.64, -12.0, -12.07, -10.6, -9.12, -8.83, -9.36, -9.56, -9.62, -9.02, -9.66, -9.46, -9.3, -8.23, -8.94, 3.76, 3.72, 3.64, 2.47, 2.16, 4.74, 5.81, 5.21, 5.21, 4.43, 3.97, 3.2, -7.15, -6.64, -6.45, -8.94, -8.43, -7.15, -6.17, -7.76, -9.33, -8.67, -9.46, -9.74, -10.73, -13.33, -13.79, -12.22, -11.21, -8.72, -1.58, 0.0, 0.0, -2.06, -2.83, -4.96, -6.01, -6.4, -7.15, 0.0, 5.21, 9.33, 8.05, 10.28, 10.73, 7.59, 0.0, -2.7, -4.62, -4.44, -4.0, -4.6, -4.46, -4.65, -6.01, -7.09, -7.44, -3.68, -2.4, -2.81, -3.82, -3.4, -1.32, -0.95, -0.67, -1.3, -0.76, -1.41, -0.76, 0.0, 0.0, -10.65, -10.65, -10.65, -10.99, -10.73, -10.99, -10.94, -11.23, -11.23, -11.52, -11.52, -11.58, -11.58, -11.68, -12.03, -11.34, -10.51, -9.28, -8.29, -8.18, -8.84, -7.79, -8.05, -8.66, -9.48, -11.26, -11.62, -0.0, 3.22, 3.48, 2.2, 1.55, 3.0, 5.06, 7.15, 5.37, 0.0, 0.0, 0.0, -7.15, -7.15, -7.6, -8.94, -5.81, -5.81, -6.71, -6.71, -6.26, -6.64, -8.24, -9.33, -9.83, -9.6, -7.54, -6.71, -7.15, -6.71, -6.63, 0.0, 0.0, -1.95, -1.95, -4.56, -6.08, -6.52, -7.37, -7.15, 0.0, 5.6, 7.15, 6.88, 10.18, 11.62, 8.93, 0.0, -3.49, -2.54, -2.54, -2.99, -3.77, -3.97, -4.65, -5.52, -5.09, -5.52, -6.44, -4.24, 0.0, 1.67, 1.58, 0.0, -0.79, -1.41, -1.3, -0.69, 0.0, 0.0, 0.0, -10.65, -10.65, -10.65, -10.99, -10.73, -11.23, -10.94, -10.94, -11.23, -11.23, -11.58, -11.58, -11.58, -11.63, -11.69, -11.38, -10.99, -9.88, -9.5, -9.02, -8.61, -7.77, -7.03, -7.01, -8.14, -8.51, -7.82, 0.0, 2.39, 2.4, 4.43, 5.81, 3.79, 7.6, 7.15, 4.74, 0.0, 0.0, -8.05, -7.6, -6.14, -5.81, -4.74, -0.0, 4.74, 6.79, 7.15, 0.0, -6.71, -5.94, -6.26, -6.71, -6.71, -6.71, -6.26, -6.26, -6.58, -5.95, -3.4, -8.49, -3.4, -0.0, -0.0, -6.0, -6.51, -7.15, -7.15, -5.69, 7.6, 6.23, 6.32, 9.7, 12.52, 9.67, 4.2, 5.69, 4.71, 4.0, 0.0, -1.95, -3.6, -4.56, -3.77, -2.99, -3.27, -2.32, -4.6, 0.0, 4.37, 2.4, 1.05, -1.52, -1.7, -0.72, -0.67, -0.69, -0.61, -0.61, -10.65, -10.65, -10.65, -10.65, -10.39, -10.99, -10.94, -11.28, -10.94, -11.23, -11.58, -11.58, -11.93, -11.63, -11.37, -11.37, -10.74, -10.02, -9.61, -9.16, -8.43, -7.93, -6.94, -6.2, -4.76, -3.09, -1.13, 0.0, 1.11, 1.09, 0.0, 0.0, 3.0, 8.05, 6.26, 6.71, 6.0, -0.0, -4.43, -4.11, -3.79, -1.3, -0.0, -0.0, 5.37, 6.8, 5.37, 7.15, 7.15, 7.15, 0.0, 0.0, 0.0, 7.15, 7.15, 0.0, -5.37, 0.0, 0.0, -0.0, 0.0, 0.0, 7.15, 0.0, 0.0, -4.11, -7.15, -7.15, 5.37, 4.43, 4.71, 5.0, 0.0, 0.0, 0.0, 8.49, 8.91, 8.43, 7.87, 4.0, 0.0, -1.95, -2.54, -2.54, -2.69, -1.32, 0.0, 2.3, 0.81, 0.0, -0.74, -1.0, -1.98, -1.63, -2.23, -2.06, -1.19, -1.19, -10.65, -10.36, -10.36, -10.65, -10.39, -10.65, -10.94, -10.94, -10.94, -10.94, -11.58, -11.93, -11.63, -11.63, -11.05, -10.44, -10.74, -10.08, -9.42, -8.08, -7.4, -6.94, -6.45, -4.86, -1.62, 0.0, 0.0, 0.0, 0.0, -0.95, -2.13, -2.42, 0.0, 5.6, 5.36, 7.01, 3.72, -1.98, -3.22, -2.6, -0.0, -0.0, -1.63, -3.97, -0.0, 0.0, 0.0, 0.0, 7.6, 7.6, 7.6, 7.6, 7.6, 7.6, 7.6, 0.0, 0.0, 8.05, 0.0, 0.0, 0.0, 0.0, 7.6, 6.71, 5.6, 5.81, -5.81, -6.79, -9.83, -0.0, -3.82, -9.67, -10.73, -8.48, -0.0, 8.91, 8.72, 7.68, 5.86, 5.1, 3.97, 0.0, -1.4, -4.2, -3.6, -3.91, -4.46, 0.0, -0.78, -2.31, -1.68, -0.89, -1.84, -3.4, -2.82, -2.12, -1.35, -1.35, -10.36, -10.36, -10.36, -10.36, -10.39, -10.65, -10.94, -10.94, -11.28, -10.94, -11.28, -11.93, -12.28, -11.69, -11.36, -12.48, -10.43, -9.84, -8.22, -6.5, -5.63, -6.73, -6.87, -5.55, -3.73, -1.63, -1.83, -2.89, -4.11, -3.68, -5.36, -5.4, -5.52, 0.0, 6.51, 5.6, 4.43, -0.0, -1.4, -2.12, -0.0, 1.84, -0.0, -0.0, -0.0, -0.0, 0.0, 8.05, 8.05, 7.6, 7.6, 7.6, 7.6, 7.6, 7.6, 0.0, 0.0, 0.0, 0.0, 0.0, 0.0, 0.0, 7.6, 5.21, 4.84, 2.6, -6.26, -6.0, -7.15, -7.59, -7.27, -4.15, -1.98, -2.37, -11.62, 0.0, 0.0, 0.0, 1.84, 3.15, 1.52, 0.0, -4.2, -6.3, -6.3, -7.15, -7.68, -8.24, -5.95, -6.23, -3.91, -2.31, -2.4, -4.26, -3.79, -2.8, -2.29, -2.29, -10.36, -10.36, -10.36, -10.36, -10.39, -10.65, -10.94, -10.94, -11.28, -10.99, -11.28, -11.63, -11.97, -11.69, -11.69, -10.75, -10.12, -10.09, -9.8, -7.89, -6.81, -7.2, -8.06, -9.2, -9.87, -9.77, -9.61, -8.65, -8.65, -7.89, -7.14, -7.59, -9.2, -8.94, 5.69, 4.02, 2.99, 1.6, -0.0, -0.0, 1.14, 2.76, 2.3, 2.0, 2.2, -0.0, 7.6, 5.37, 5.37, 7.6, 7.6, 7.6, 7.6, 7.6, 6.71, 0.0, 0.0, 0.0, -5.69, 0.0, 0.0, 0.0, 5.06, 5.06, 4.11, 2.6, -5.81, -4.74, -1.49, 1.4, 3.11, 2.24, 2.11, 0.0, -4.81, -9.42, -10.6, -9.2, -3.15, 0.0, 0.0, 0.0, -1.47, -3.8, -5.31, -5.43, -5.36, -4.74, -7.55, -6.65, -6.06, -5.49, -5.28, -4.83, -5.37, -4.56, -3.32, -3.32, -10.36, -10.09, -10.09, -10.09, -10.09, -10.09, -10.36, -10.94, -10.99, -10.99, -10.99, -11.63, -11.97, -11.69, -11.37, -11.37, -9.82, -9.77, -9.71, -10.92, -10.97, -9.81, -9.81, -10.23, -12.39, -12.42, -11.06, -10.75, -10.12, -8.53, -8.15, -7.6, -8.49, -7.6, -0.0, 2.12, 1.14, 1.14, -0.0, -0.0, 2.49, 3.22, 3.22, 3.76, 2.98, -0.0, -0.0, 5.37, 6.8, 6.4, 7.15, 7.15, 7.6, 7.6, 0.0, 0.0, 0.0, 0.0, 0.0, 0.0, -0.0, 3.4, 3.2, -0.0, -0.0, -0.0, -0.0, 0.0, 5.06, 7.28, 8.22, 6.98, 4.15, 0.0, -6.47, -11.35, -12.62, -12.14, -9.2, -5.37, -1.63, 0.0, 1.58, 1.73, 0.0, -2.98, -3.79, -4.11, -2.6, -4.01, -6.44, -7.68, -6.88, -5.37, -5.09, -4.74, -3.43, -3.43, -10.09, -10.09, -10.09, -10.09, -9.77, -10.09, -10.09, -10.94, -10.99, -10.99, -10.99, -11.33, -11.33, -11.97, -11.66, -11.36, -10.43, -9.8, -10.74, -12.04, -12.01, -10.99, -10.65, -10.65, -11.7, -11.31, -10.25, -9.53, -8.67, -8.49, -6.52, -6.26, -6.71, -6.0, -0.0, -0.0, -0.0, -0.0, -0.0, -0.0, 2.8, 3.76, 4.43, 4.43, 4.11, 2.98, -0.0, 3.4, 5.06, 4.74, 7.15, 7.6, 7.15, 0.0, 0.0, 0.0, 0.0, -0.0, -0.0, -0.0, 3.97, 3.2, 3.97, 3.0, -0.0, -0.0, -0.0, -0.0, 5.6, 8.05, 7.15, 6.7, 7.69, 3.16, -8.37, -13.32, -15.2, -15.02, -13.09, -10.18, -6.7, 0.0, 2.12, 4.43, 6.71, 0.0, -5.81, -5.94, -4.87, -4.2, -6.98, -7.61, -6.92, -4.71, -3.49, -4.29, -3.63, -3.63, -10.09, -10.09, -10.09, -10.09, -9.77, -10.09, -10.09, -10.4, -10.99, -11.33, -11.33, -11.03, -11.66, -11.66, -11.66, -11.36, -10.43, -10.12, -10.75, -11.36, -10.94, -9.69, -9.33, -10.01, -10.7, -11.01, -9.87, -8.72, -7.36, -6.95, -7.63, -6.71, -5.81, -5.36, -5.36, 0.0, -0.0, -0.0, -0.0, -0.0, 2.8, 3.76, 4.43, 4.43, 4.29, 3.48, 5.06, 4.74, 4.43, 7.15, 7.6, 0.0, 0.0, 0.0, 0.0, 0.0, -0.0, -0.0, 3.6, 4.74, 3.97, 4.22, 3.4, -0.0, 4.74, 4.11, -0.0, -0.0, -0.0, 0.0, 0.0, 8.05, 13.86, 0.0, -5.36, -9.68, -13.35, -14.86, -14.99, -13.75, -10.28, -8.05, -4.74, 0.0, -6.71, -6.71, -6.71, -6.79, -8.37, -7.78, -8.01, -7.61, -6.98, -3.15, -2.84, -2.68, -2.73, -2.73, -10.09, -10.09, -10.09, -9.77, -9.77, -10.09, -10.09, -10.12, -10.99, -11.33, -11.33, -11.03, -11.36, -11.66, -11.66, -11.05, -10.75, -10.43, -11.06, -10.73, -10.33, -8.68, -8.04, -8.11, -9.3, -9.58, -9.87, -8.72, -7.38, -6.4, -5.95, -6.32, -8.05, -7.15, -6.71, -6.71, 0.0, -0.0, -0.0, -0.0, 1.84, 2.8, 4.02, 4.43, 4.11, 3.48, 4.74, 6.0, 5.06, 7.6, 0.0, 0.0, 0.0, 0.0, 0.0, 0.0, 0.0, -0.0, -0.0, 4.74, 5.36, -0.0, 0.0, 0.0, 3.48, 4.11, 0.0, 0.0, 0.0, 0.0, -6.71, -9.39, 0.0, 0.0, -5.81, -4.92, -8.48, -11.2, -12.79, -13.57, -12.35, -9.83, -8.49, -8.05, -7.6, -7.15, -7.15, -8.67, -8.58, -5.49, -5.94, -4.43, -4.12, -2.68, -2.41, -3.07, -3.72, -3.72, -10.09, -10.09, -10.09, -10.09, -9.77, -9.77, -9.8, -10.12, -10.72, -11.33, -11.33, -11.03, -11.36, -11.36, -11.03, -10.43, -10.43, -10.75, -10.75, -10.73, -10.05, -9.35, -8.0, -7.59, -8.18, -8.58, -9.22, -8.72, -8.05, -7.2, -6.21, -5.0, -5.46, -6.32, -6.01, -3.6, -5.37, -7.15, -4.74, -0.0, -0.0, 3.72, 5.06, 4.74, 5.01, 4.11, 4.11, 4.84, 4.43, 4.43, 4.11, -0.0, 0.0, 0.0, 0.0, 0.0, 6.71, 5.81, -0.0, 0.0, 0.0, 0.0, -5.36, 0.0, 5.81, 0.0, 0.0, -0.0, -0.0, 0.0, -7.21, -4.56, -1.76, 0.0, 0.0, 0.0, -1.14, -2.53, -5.36, -7.54, -10.47, -11.87, -11.02, -10.14, -8.05, -7.6, -7.98, -7.98, -6.88, -5.81, -3.47, -4.14, -4.19, -3.48, -3.49, -4.12, -4.11, -4.11, -10.09, -10.09, -10.09, -10.09, -9.77, -9.19, -9.5, -10.12, -10.43, -10.99, -11.33, -11.03, -11.36, -11.36, -11.06, -11.03, -10.72, -10.72, -11.06, -10.76, -10.13, -9.48, -8.68, -8.24, -8.05, -8.18, -8.1, -8.46, -7.79, -7.78, -7.18, -6.4, -5.0, -3.82, -4.4, -4.96, -2.69, -6.01, -8.05, -7.6, -0.0, 3.4, 4.22, 5.37, 5.95, 6.0, 5.58, 4.43, 3.47, 3.22, 2.4, 3.48, 4.74, 5.06, 5.37, 7.6, 6.71, 0.0, 0.0, -7.15, -7.15, -5.06, 0.0, 0.0, 0.0, 0.0, -0.0, -0.0, -0.0, -0.0, -6.79, -6.32, -2.21, 0.0, 2.32, 4.65, 5.4, -0.95, -4.11, -6.32, -9.17, -11.9, -12.33, -10.62, -6.26, -7.15, -7.08, -7.6, -7.15, -6.26, 0.0, -1.4, -3.8, -5.06, -4.84, -5.05, -5.31, -5.31, -10.09, -10.09, -10.09, -10.09, -9.8, -9.5, -9.5, -9.5, -10.12, -10.72, -11.33, -11.33, -11.36, -11.03, -11.06, -11.36, -10.43, -10.72, -10.75, -10.76, -10.13, -9.77, -9.09, -8.68, -8.24, -8.58, -8.25, -8.2, -7.54, -7.51, -7.64, -6.84, -6.0, -5.75, -4.8, -4.18, -3.87, -4.4, -4.2, -6.32, -8.0, 0.0, 8.49, 5.69, 7.21, 7.21, 5.37, 5.06, 2.12, 2.8, 3.49, 3.48, 3.16, 3.49, 4.43, 4.74, 5.06, 6.71, 6.26, -6.71, -7.2, -7.15, -5.37, -4.11, 0.0, -8.49, -0.0, -3.4, -5.06, -7.15, -6.94, -6.52, -4.46, -2.17, 1.16, 5.43, 6.0, 0.0, -5.37, -5.58, -8.24, -11.64, -12.42, -10.32, -7.15, -6.64, -7.08, -7.15, -7.15, 7.15, 4.74, 3.47, 0.0, -1.4, -3.72, -4.84, -4.27, -4.27, -10.09, -10.09, -10.09, -10.09, -9.8, -9.5, -9.5, -9.21, -9.82, -10.4, -10.99, -11.33, -11.33, -10.75, -10.75, -10.43, -10.43, -10.43, -10.44, -10.13, -9.84, -9.49, -9.49, -9.09, -8.68, -8.28, -8.64, -7.99, -7.93, -7.63, -7.24, -7.36, -6.57, -5.76, -5.14, -4.6, -4.18, -3.45, -3.7, -4.83, -6.32, -6.32, 8.49, 8.49, 8.05, 8.05, -0.0, -0.0, 2.26, 3.72, 2.6, 3.22, 3.84, 3.84, 3.84, 4.84, 6.0, 6.71, 6.26, 0.0, -5.95, -6.8, -7.15, -6.4, -8.49, -9.83, -0.0, -5.37, -7.21, -7.6, -7.37, -6.9, -7.07, -6.63, -2.82, 0.0, 3.82, 0.0, -6.07, -5.6, -6.18, -10.3, -11.25, -10.4, -8.82, -7.6, -6.07, -5.06, 7.15, 6.79, 6.4, 5.06, 2.26, 2.21, 1.14, 0.0, -1.6, -1.6, -10.09, -10.09, -10.09, -10.09, -9.8, -9.5, -9.5, -9.21, -9.82, -9.82, -10.72, -11.33, -11.33, -11.05, -10.43, -9.82, -9.82, -10.43, -10.44, -10.13, -10.13, -9.49, -9.49, -9.12, -8.43, -8.46, -8.08, -7.99, -8.38, -7.54, -7.12, -6.7, -6.84, -6.57, -5.76, -4.92, -4.25, -3.65, -4.4, -3.87, -4.83, -6.32, 0.0, 7.6, 7.15, 7.6, -0.0, -0.0, -0.0, 2.12, 3.22, 3.79, 3.93, 4.22, 4.09, 4.0, 5.6, 6.71, 6.26, 6.71, -4.74, -6.32, -6.36, -7.63, -8.94, -0.0, -0.0, -0.0, -3.4, -6.32, -8.05, -5.69, -4.71, -6.91, -9.38, -9.3, -6.17, 0.0, -5.2, -4.98, -4.11, -8.93, -9.97, -9.8, -8.05, -4.46, -0.0, 1.23, 3.47, 5.21, 5.94, 6.26, 3.72, 2.99, 2.99, 2.83, 2.51, 2.51, -10.09, -10.09, -10.09, -10.09, -10.09, -9.8, -9.5, -9.5, -9.82, -9.82, -10.12, -11.33, -11.33, -10.72, -10.12, -10.12, -10.12, -10.11, -9.8, -9.8, -9.79, -9.49, -9.49, -9.12, -8.85, -8.2, -8.08, -8.42, -8.38, -8.01, -7.38, -6.56, -6.7, -6.45, -6.2, -5.41, -4.92, -4.25, -3.82, -4.4, -5.46, -5.63, -4.0, 0.0, 7.15, 7.6, 0.0, -7.15, 0.0, 4.92, 4.92, 4.92, 4.66, 4.57, 4.66, 4.4, 4.11, 4.3, 6.07, 4.43, -0.0, -3.97, -5.06, -5.69, -0.0, -0.0, 3.6, -0.0, -0.0, -7.21, -8.05, -5.93, -2.33, -3.98, -8.85, -10.82, -9.27, -4.37, -2.2, -3.49, -4.19, -7.56, -9.17, -10.12, -9.17, -6.71, 0.88, 0.59, -0.0, 1.32, 3.4, 6.7, 8.06, 2.82, 3.35, 4.21, 3.6, 3.6, -9.77, -9.77, -10.09, -10.09, -10.09, -9.8, -9.5, -9.5, -9.82, -9.82, -10.12, -10.4, -11.33, -10.72, -10.12, -10.12, -9.8, -9.5, -9.8, -9.5, -9.5, -8.85, -8.85, -8.85, -8.85, -8.58, -8.49, -8.42, -7.93, -7.44, -7.79, -7.25, -6.56, -6.33, -6.45, -5.63, -5.41, -4.92, -4.25, -4.99, -4.4, -4.4, -5.21, 0.0, 0.0, 0.0, -6.01, -3.0, 0.0, 1.6, 1.98, 2.23, 3.72, 4.92, 4.82, 4.66, 4.52, 4.93, 4.09, 2.6, -0.0, -4.22, -4.46, -5.69, -0.0, 5.37, -0.0, -0.0, 0.0, -6.4, -6.17, -5.94, -3.68, 0.0, -1.9, -7.21, -9.34, -6.98, -5.21, -3.6, -6.95, -7.44, -8.65, -9.92, -8.97, -8.93, -4.6, -0.0, 0.64, 1.41, 2.53, 2.95, 5.94, 5.37, 4.0, 3.52, 3.99, 3.99, -9.77, -9.77, -9.77, -10.09, -9.8, -9.8, -9.5, -9.82, -9.82, -9.8, -9.8, -10.12, -10.72, -10.99, -10.4, -10.12, -9.8, -9.5, -9.8, -9.5, -9.22, -8.85, -8.85, -8.85, -8.85, -8.2, -8.49, -8.46, -7.82, -7.28, -7.93, -7.44, -7.19, -6.53, -6.09, -5.86, -5.63, -5.41, -4.92, -4.92, -4.78, -4.88, -4.83, -2.17, -2.17, -2.28, -2.28, 0.0, 1.23, 2.16, 1.99, 2.2, 2.95, 4.09, 4.66, 4.38, 4.66, 4.8, 4.12, 2.6, -0.0, -2.4, -3.6, -0.0, 8.05, 7.6, 7.15, -7.6, -6.8, -5.37, -5.75, -7.06, -8.0, -1.62, 0.0, -2.15, -7.36, -7.44, -5.59, -4.88, -4.66, -6.95, -7.27, -7.65, -8.1, -7.69, -9.77, -3.53, 2.32, 3.63, 3.22, 3.22, 4.66, 4.77, 5.31, 4.96, 4.46, 4.46, -9.77, -9.77, -9.77, -10.09, -10.09, -9.8, -9.8, -9.8, -9.5, -9.5, -9.5, -9.8, -10.4, -10.72, -10.72, -10.12, -9.8, -9.5, -9.5, -9.49, -9.49, -9.21, -9.12, -8.85, -8.46, -8.2, -8.49, -8.83, -8.82, -7.62, -7.54, -7.54, -7.14, -6.7, -6.29, -5.54, -5.3, -5.09, -5.41, -4.92, -5.29, -4.78, -4.88, -4.2, -2.97, -1.54, 0.0, 0.0, 1.14, 1.96, 2.26, 2.49, 2.8, 3.22, 3.79, 4.24, 4.47, 4.15, 3.48, 2.53, -0.0, -0.0, -0.0, 6.8, 7.21, 7.21, 7.15, 0.0, -7.2, -7.07, -7.07, -8.94, -8.49, -6.64, -3.29, -1.17, -3.11, -4.46, -1.95, -1.33, 0.0, 0.0, 0.0, -1.91, -4.28, -4.99, -4.43, -4.24, 6.32, 7.01, 6.4, 4.46, 4.66, 4.02, 5.58, 6.01, 5.03, 5.03, -9.77, -9.77, -9.77, -9.77, -9.77, -9.77, -9.77, -9.19, -9.5, -9.5, -9.5, -9.5, -10.4, -10.72, -10.72, -10.12, -9.8, -9.8, -9.84, -9.84, -9.84, -9.48, -9.48, -8.83, -8.18, -8.18, -8.49, -8.81, -9.76, -8.78, -7.82, -7.26, -7.18, -6.76, -5.98, -5.26, -5.0, -4.8, -5.09, -4.6, -4.92, -4.4, -3.99, -3.45, -2.28, -1.22, 0.0, 0.0, 1.11, 1.2, 1.25, 2.12, 2.49, 2.6, 2.98, 4.4, 4.47, 4.02, 3.6, 2.84, -0.0, -0.0, 7.6, 5.37, 5.06, 5.06, 5.06, 4.74, 0.0, -8.49, -7.2, -6.64, -9.11, -7.64, -8.15, -4.66, 0.0, 4.15, 5.0, 3.92, 1.01, 0.0, 0.0, -1.28, -1.44, -1.9, -1.9, -2.04, 1.58, 6.32, 5.64, 6.26, 4.92, 3.58, 4.11, 4.83, 5.03, 5.03, -9.72, -9.72, -9.72, -9.44, -9.17, -9.17, -9.48, -9.48, -9.5, -9.17, -9.17, -9.5, -10.12, -10.43, -10.12, -10.12, -9.8, -9.82, -9.84, -9.84, -10.13, -9.48, -9.48, -9.21, -8.83, -8.43, -8.46, -8.51, -9.13, -8.78, -8.1, -7.46, -7.02, -6.76, -5.98, -5.26, -5.26, -4.54, -4.54, -4.05, -4.6, -4.71, -4.4, -3.65, -3.11, -1.09, 0.0, 0.0, 0.0, 1.26, 1.2, 1.32, 1.49, 1.73, 1.98, 2.6, 4.4, 4.47, 4.47, 4.47, 4.0, 7.6, 7.6, 5.37, 5.37, 5.37, -0.0, -0.0, -2.4, -4.22, -4.22, -8.0, -6.64, -6.2, -6.98, -3.25, 2.32, 6.21, 6.0, 3.81, 0.0, -1.0, -2.16, -2.72, -1.55, -1.06, -1.05, 0.0, 1.52, 2.12, 3.76, 3.79, 5.36, 0.0, 0.0, 0.0, 3.8, 3.8, -9.13, -9.13, -9.13, -9.46, -9.46, -9.46, -9.48, -9.17, -9.17, -9.17, -9.46, -9.8, -9.82, -9.82, -10.12, -9.8, -10.12, -9.82, -9.84, -9.84, -9.84, -9.21, -9.48, -9.48, -8.83, -8.56, -8.18, -8.22, -8.53, -8.49, -8.1, -7.4, -6.7, -6.45, -5.98, -5.75, -5.26, -4.8, -4.3, -3.82, -4.05, -3.78, -3.21, -2.59, -1.93, -1.02, 0.0, 0.0, 0.0, 0.0, 0.0, 0.0, 0.0, 0.0, 1.73, 2.12, 2.6, 4.8, 4.0, 4.47, 4.92, 4.66, 5.69, 5.06, 7.6, 8.49, 3.4, 2.54, -0.0, -2.4, -3.8, -6.8, -3.11, 0.0, -0.96, -1.09, 1.16, 3.81, 2.89, 0.87, -0.81, -1.91, -2.6, -3.39, -1.76, 0.0, 0.0, 0.0, 0.76, 0.89, 1.03, 1.52, 0.0, 0.0, 0.0, 0.0, 2.69, 2.69, -9.42, -9.42, -9.46, -9.46, -9.46, -9.46, -9.48, -9.17, -9.17, -9.17, -9.8, -9.8, -9.82, -9.82, -10.12, -9.5, -9.8, -9.82, -9.84, -10.13, -9.84, -9.49, -9.21, -9.21, -8.83, -8.43, -8.18, -8.2, -8.23, -8.17, -8.1, -7.4, -6.7, -6.7, -5.7, -5.7, -5.48, -5.0, -4.8, -4.3, -3.82, -3.53, -2.97, -1.47, 0.0, 0.0, -0.93, -1.02, 0.0, 0.0, 0.0, 0.0, 0.0, 0.0, 0.0, 0.0, 1.98, 2.6, 4.0, 4.4, 4.92, 4.92, 5.37, 5.06, 7.6, 8.49, 5.95, 5.37, 2.54, -0.0, -0.0, -0.0, 6.64, 3.39, 1.9, 0.0, -3.07, -3.29, -3.07, -3.49, -2.47, -1.76, -1.14, -1.32, 0.0, 0.0, 0.0, 0.0, 0.0, 0.0, 0.0, 0.0, 0.0, 0.0, -1.13, -1.41, -1.73, 0.0, -9.46, -9.46, -9.46, -9.46, -9.46, -9.17, -9.48, -9.48, -9.5, -9.5, -9.5, -9.82, -9.82, -9.82, -9.82, -9.5, -9.5, -9.82, -9.84, -9.84, -9.84, -9.49, -9.49, -8.83, -8.83, -8.18, -7.93, -7.8, -8.51, -7.87, -8.2, -7.82, -7.14, -6.45, -6.16, -5.7, -5.75, -5.26, -5.26, -4.54, -4.05, -3.53, -2.83, -1.4, 0.0, 0.0, -1.84, -1.92, -2.23, -2.39, -1.26, -1.4, -1.32, 0.0, 0.0, 0.0, 0.0, 1.84, 2.0, 3.48, 4.4, 4.92, 7.6, 6.71, 7.15, 8.05, 7.2, 5.95, 6.8, -0.0, -0.0, -0.0, 8.94, 2.7, 2.81, 2.13, -1.45, -8.24, -9.09, -7.04, -4.36, -1.84, -1.05, -1.01, 0.0, 0.0, 0.0, 0.0, 0.0, 0.0, 0.0, 0.0, 0.0, -1.41, -1.55, -2.0, -2.6, -1.73, -9.46, -9.46, -9.72, -9.72, -9.44, -9.77, -9.77, -9.8, -9.8, -9.82, -9.82, -10.13, -9.82, -9.82, -9.8, -9.5, -9.19, -9.21, -9.84, -9.84, -9.84, -9.22, -9.22, -8.85, -8.57, -8.18, -7.93, -7.55, -8.11, -7.87, -7.89, -7.24, -7.54, -6.58, -5.92, -5.48, -5.48, -5.0, -5.26, -4.54, -4.8, -4.31, -3.61, -2.9, -1.26, -0.82, -2.71, -3.21, -3.61, -2.58, -2.46, -2.69, -1.58, -1.49, 0.0, 0.0, 0.0, 1.7, 1.55, 1.55, 3.48, 3.48, 5.09, 7.6, 7.6, 7.6, 6.4, 6.4, 5.37, 7.6, 0.0, -0.0, 0.0, 0.0, 2.95, 5.72, 4.25, 0.0, -5.86, -7.89, -5.86, -3.87, -2.21, 0.0, 0.0, 0.0, 0.0, 0.0, 0.0, 0.0, 0.0, 0.0, 0.0, -1.4, -1.52, -2.98, -3.22, -2.6, -9.46, -9.46, -9.46, -9.72, -9.72, -9.77, -9.77, -9.8, -10.12, -9.82, -9.82, -9.82, -9.82, -9.8, -9.19, -9.19, -9.5, -9.5, -9.82, -9.84, -9.5, -9.5, -9.22, -8.85, -8.85, -8.18, -8.18, -7.55, -6.92, -7.48, -7.6, -7.61, -6.97, -6.58, -5.92, -5.92, -5.48, -5.48, -5.0, -5.05, -4.8, -4.87, -4.4, -4.5, -4.71, -4.08, -3.53, -2.97, -3.35, -2.69, -2.69, -1.67, -1.58, -1.49, 0.0, 0.0, 0.0, 0.0, 1.3, 1.55, 2.73, 2.73, 5.06, 7.15, 7.6, 7.6, 7.15, 8.05, 7.15, 0.0, -0.0, -5.69, -8.94, -8.0, 0.0, 4.2, 5.57, 3.67, 0.0, -2.83, -4.43, -2.32, -0.81, 0.0, 0.0, 0.0, 0.0, 0.0, 0.0, 0.0, 0.0, 0.0, 0.0, -1.32, -1.58, -3.2, -4.02, -4.02, -9.13, -9.13, -9.46, -9.46, -9.46, -9.77, -9.77, -9.8, -9.8, -10.12, -9.82, -9.82, -9.82, -9.5, -9.19, -9.19, -9.21, -9.5, -9.5, -9.21, -9.21, -9.21, -8.86, -8.58, -8.85, -8.2, -8.2, -7.55, -7.57, -6.94, -7.22, -6.96, -6.96, -6.97, -6.33, -5.92, -5.92, -5.26, -5.26, -5.05, -5.05, -5.1, -4.87, -5.18, -5.63, -5.06, -3.25, -2.54, -2.09, -2.26, -1.25, -1.58, -1.58, 0.0, 0.0, 0.0, 0.0, 0.0, 0.0, 1.3, 1.3, 2.2, 3.48, 0.0, 5.37, 6.8, 7.6, 7.6, 7.15, 0.0, -5.69, -7.2, -8.4, -8.49, -8.4, -1.67, 0.0, 1.76, 3.21, 3.35, 2.4, 2.26, 1.05, 0.0, -1.14, -2.58, -1.84, -1.73, -0.89, -1.0, -1.0, -0.89, -0.89, -2.21, -3.15, -5.1, -5.1, -5.1, -9.13, -9.13, -9.46, -9.46, -9.46, -9.44, -9.77, -10.09, -9.8, -10.12, -9.82, -9.82, -9.82, -9.5, -9.19, -9.19, -9.5, -9.82, -9.21, -9.5, -9.21, -8.86, -8.86, -8.58, -8.58, -8.2, -8.2, -7.55, -7.57, -7.32, -6.94, -6.96, -6.96, -6.7, -6.31, -6.33, -5.69, -5.69, -5.26, -5.26, -4.84, -5.1, -5.39, -5.18, -5.41, -4.68, -3.25, -2.35, -1.84, -1.0, -1.01, -1.18, 0.0, 0.0, 0.0, 0.0, 0.0, 0.0, 0.0, 1.41, 1.3, 1.3, 1.55, 0.0, 5.37, 5.37, 8.05, 8.05, 7.15, 0.0, -5.69, -7.6, -8.48, -9.39, -8.72, -6.98, -3.52, 0.0, 2.34, 5.06, 7.38, 7.44, 6.6, 3.81, 0.0, -4.8, -4.71, -3.72, -3.11, -2.51, -2.51, -2.51, -2.51, -4.0, -4.6, -5.59, -5.59, -5.59, -9.13, -9.13, -9.46, -9.46, -9.46, -9.17, -9.77, -9.77, -9.8, -9.8, -10.12, -10.12, -9.8, -9.19, -9.19, -9.19, -9.5, -9.5, -9.21, -9.5, -8.87, -8.59, -8.86, -8.86, -8.58, -8.2, -8.2, -7.55, -7.57, -7.32, -7.19, -6.94, -6.96, -6.7, -6.31, -6.33, -5.69, -5.69, -5.69, -5.04, -5.29, -4.84, -5.1, -4.87, -5.18, -4.31, -3.53, -2.97, -2.35, -1.67, -0.89, -0.94, 0.0, 0.0, 0.0, 0.0, 0.0, 0.0, 0.0, 1.23, 1.14, 1.3, 1.3, 1.7, 0.0, 5.69, 8.05, 7.15, 7.6, -0.0, -6.32, -8.06, -8.94, -9.11, -9.13, -7.51, -4.2, -1.22, 0.93, 6.15, 10.76, 11.53, 9.41, 6.3, 3.65, 0.0, -7.51, -7.07, -6.18, -4.29, -4.71, -3.11, -3.55, -4.71, -5.31, -6.63, -6.63, -6.63, -9.13, -9.13, -9.46, -9.46, -9.46, -9.17, -9.48, -9.77, -9.8, -9.8, -9.8, -10.12, -9.19, -9.19, -9.19, -9.19, -9.5, -9.5, -9.5, -9.5, -8.87, -8.59, -8.59, -8.86, -8.58, -8.2, -8.2, -7.55, -7.57, -7.32, -7.59, -7.33, -6.94, -6.7, -6.31, -6.07, -5.92, -5.69, -5.45, -5.29, -5.29, -5.29, -5.1, -5.39, -4.87, -4.31, -3.53, -2.97, -2.83, -2.35, -1.67, -1.75, -0.94, 0.0, 0.0, 0.0, 0.0, 0.0, 0.0, 1.23, 1.41, 1.41, 1.3, 1.3, 1.84, 6.01, 5.69, 7.15, 7.15, -0.0, -5.69, -7.6, -8.94, -9.39, -8.4, -6.64, -2.97, 0.0, 2.23, 7.06, 10.92, 10.84, 7.81, 6.47, 5.81, 4.4, -4.6, -9.2, -8.8, -8.05, -4.29, -3.48, -4.43, -5.49, -5.93, -6.8, -6.8, -6.8, -9.13, -9.13, -9.46, -9.46, -9.17, -9.48, -9.77, -9.77, -9.48, -9.8, -9.8, -9.8, -9.19, -8.58, -8.87, -9.19, -9.5, -9.5, -9.5, -9.21, -8.87, -8.87, -8.59, -8.86, -8.58, -8.2, -8.2, -7.95, -7.83, -7.57, -7.59, -7.59, -7.19, -6.94, -6.7, -6.56, -6.31, -5.69, -5.69, -5.29, -5.29, -5.29, -5.1, -4.88, -4.66, -4.12, -4.12, -3.61, -2.83, -2.35, -2.44, -1.75, -1.75, -1.0, 0.0, 0.0, 0.0, 1.4, 1.32, 0.0, 1.52, 1.41, 1.3, 1.3, 2.4, 6.01, 5.37, 7.6, 0.0, -0.0, 0.0, -0.0, -0.0, -0.0, -0.0, 9.39, 4.2, 3.65, 6.95, 8.54, 8.58, 7.21, 7.15, 8.37, 8.7, 6.21, 0.0, -8.8, -8.77, -3.79, -2.73, -3.48, -4.46, -5.6, -6.36, -6.71, -6.71, -6.71, -9.13, -9.13, -9.46, -9.17, -9.17, -9.48, -9.77, -9.77, -9.48, -9.8, -9.8, -9.8, -9.19, -8.58, -9.19, -9.5, -9.82, -9.5, -9.5, -9.21, -8.87, -8.87, -8.59, -8.59, -8.2, -8.2, -8.2, -7.95, -7.55, -7.57, -7.57, -7.59, -7.19, -6.94, -6.94, -6.29, -6.29, -5.89, -5.67, -5.26, -5.29, -5.29, -4.88, -4.88, -4.66, -4.66, -4.2, -3.61, -2.83, -3.06, -2.44, -1.67, -1.75, -0.89, 0.0, 0.0, 0.0, 0.0, 0.0, 0.0, 0.0, 1.41, 1.3, 1.19, 1.55, 5.69, 5.37, 5.37, 0.0, 5.37, 3.8, 3.8, -0.0, -0.0, -0.0, 9.39, 6.64, 7.81, 8.4, 7.81, 6.95, 5.98, 8.94, 11.45, 10.63, 7.13, 3.65, -6.26, -6.26, 0.0, 0.0, -3.79, -4.57, -6.14, -6.71, -6.4, -6.4, -6.4, -9.13, -9.13, -9.46, -9.17, -9.17, -9.48, -9.77, -9.77, -9.77, -9.8, -9.8, -9.8, -9.19, -9.19, -9.19, -9.5, -9.82, -9.5, -9.21, -9.21, -8.87, -8.87, -8.22, -8.22, -8.49, -8.2, -8.2, -7.95, -8.22, -7.57, -7.57, -7.85, -7.59, -6.94, -6.94, -6.7, -6.29, -6.31, -5.89, -5.67, -5.26, -5.29, -4.84, -4.88, -4.66, -4.66, -4.2, -3.61, -2.97, -3.06, -2.23, -2.44, -1.84, -1.75, -0.94, 0.0, 0.0, 0.0, 0.0, 0.0, 0.0, 0.0, 1.3, 1.19, 1.55, 0.0, 0.0, 5.06, 7.6, 3.6, 6.01, 6.32, -0.0, -0.0, -0.0, -0.0, 8.94, 8.94, 8.77, 6.98, 6.32, 6.01, 8.22, 10.43, 8.68, 5.15, -5.09, -2.53, -1.55, 5.81, 5.2, 0.0, -4.92, -5.64, -5.01, -4.74, -4.74, -4.74, -9.13, -9.13, -9.46, -9.46, -9.17, -9.17, -9.48, -9.77, -9.77, -9.8, -9.8, -9.8, -9.19, -9.19, -9.19, -9.8, -9.82, -9.21, -9.21, -8.87, -8.87, -8.87, -8.22, -8.22, -8.22, -8.2, -7.95, -7.95, -8.22, -8.22, -7.57, -7.85, -7.59, -7.33, -6.94, -6.7, -6.56, -6.31, -5.89, -5.67, -5.69, -5.04, -4.84, -4.88, -4.4, -4.45, -3.93, -3.61, -2.97, -3.06, -2.35, -2.44, -1.67, -1.75, -1.0, -0.94, 0.0, 0.0, 0.0, 0.0, 0.0, 0.0, 0.0, 0.0, 0.0, 0.0, 0.0, 6.71, 5.06, 3.4, 5.69, 8.49, 8.94, -0.0, -0.0, -0.0, 6.01, 7.6, 8.49, 7.6, 6.01, 6.63, 6.32, 5.45, 4.52, 0.0, -4.84, -3.16, -2.0, -2.98, 0.0, 0.0, -5.09, -3.79, -3.49, -3.49, -3.49, -3.49, -9.13, -9.13, -9.13, -9.46, -9.46, -9.17, -9.17, -9.48, -9.77, -9.8, -9.8, -9.19, -9.48, -9.19, -9.5, -9.8, -9.5, -9.21, -9.21, -8.59, -8.59, -8.87, -8.59, -8.22, -8.22, -8.22, -8.22, -8.22, -8.22, -8.22, -7.96, -7.85, -7.59, -7.59, -6.94, -6.7, -6.56, -6.31, -5.67, -5.67, -5.69, -5.26, -4.6, -4.63, -4.4, -3.93, -3.93, -3.37, -2.97, -2.83, -2.35, -2.23, -1.67, -1.84, -1.95, -1.0, -0.94, -1.01, 0.0, 0.0, 0.0, 0.0, 0.0, 0.0, 0.0, -1.7, -4.74, 0.0, 4.43, 3.0, -0.0, 5.69, 8.94, 8.94, -0.0, -0.0, -0.0, 3.8, 8.49, 7.6, 6.79, 6.01, 5.03, 3.52, 0.0, -1.29, -5.37, -3.32, -2.84, -3.49, -5.81, -7.37, -6.26, -4.4, -3.93, -4.46, -4.46, -4.46, -9.13, -9.13, -9.13, -9.46, -9.46, -9.46, -9.17, -9.48, -9.77, -9.48, -9.48, -9.48, -9.48, -9.19, -9.8, -9.8, -9.5, -9.5, -9.19, -8.59, -8.59, -8.87, -8.59, -8.59, -8.22, -8.22, -8.22, -8.22, -8.22, -7.96, -7.96, -7.59, -7.59, -7.33, -7.33, -6.96, -6.56, -6.31, -5.67, -5.92, -5.26, -5.26, -4.84, -4.63, -4.4, -3.7, -3.93, -3.37, -3.61, -2.97, -2.35, -2.35, -2.44, -1.84, -1.75, -1.95, -1.84, -0.94, -1.01, -0.95, -0.89, 0.0, 0.0, 0.0, 0.0, -1.84, -4.74, 0.0, 0.0, 4.74, -0.0, -6.8, -8.05, 0.0, -0.0, -0.0, -0.0, 6.01, 8.49, 8.49, 7.6, 6.01, 4.14, 1.13, 0.0, -1.3, -8.23, -4.66, -3.2, -3.6, -4.87, -7.15, -6.71, -4.82, -4.34, -4.4, -4.4, -4.4, -9.13, -9.13, -9.13, -9.13, -9.46, -9.46, -9.17, -9.48, -9.17, -9.17, -9.17, -9.48, -9.19, -9.8, -9.8, -9.19, -9.19, -9.19, -9.19, -8.87, -8.59, -8.87, -8.59, -8.59, -8.22, -8.22, -8.22, -8.22, -8.22, -7.57, -7.85, -7.59, -7.87, -7.6, -7.6, -6.96, -6.96, -6.31, -5.67, -5.92, -5.26, -5.52, -4.84, -4.63, -4.4, -3.7, -3.93, -3.21, -3.61, -2.97, -3.06, -2.35, -2.44, -1.84, -1.84, -1.95, -1.84, -1.84, -1.73, -0.95, -0.95, -0.89, -1.03, -1.03, -1.23, -2.8, -2.6, -2.6, 0.0, 7.15, 0.0, -8.05, -7.6, -7.15, -7.15, -0.0, -0.0, 0.0, 0.0, 8.05, 8.05, 5.69, 2.33, 2.28, 2.21, 1.53, -8.93, -6.88, -3.87, -3.98, -4.43, -7.15, -7.6, -5.36, -4.92, -5.36, -5.36, -5.36, -9.13, -9.13, -9.13, -9.13, -9.13, -9.46, -9.46, -9.17, -9.17, -9.17, -9.17, -9.48, -9.8, -9.8, -9.19, -9.19, -9.19, -9.19, -9.19, -8.87, -8.59, -8.87, -8.87, -8.59, -8.22, -8.22, -8.22, -8.22, -7.96, -7.57, -7.85, -7.59, -7.6, -7.6, -7.6, -6.96, -6.96, -6.31, -6.33, -5.69, -5.26, -5.29, -4.84, -4.88, -4.4, -3.93, -3.93, -3.61, -3.44, -3.21, -3.06, -2.57, -2.44, -2.69, -2.69, -2.54, -2.83, -1.84, -1.84, -1.96, -1.84, -1.84, -1.98, -1.98, -2.49, -2.49, -3.0, -1.84, 0.0, 0.0, 0.0, 0.0, -8.05, -7.81, -7.21, -6.8, -5.69, -8.05, -8.49, 0.0, 0.0, 0.0, 2.12, 4.4, 4.55, 5.0, -6.01, -5.09, -3.98, -3.98, -5.81, -8.05, -8.05, -6.14, -5.64, 0.0, 0.0, 0.0, -9.13, -9.13, -9.13, -9.13, -9.13, -9.13, -9.13, -8.85, -8.87, -9.17, -9.48, -9.48, -9.8, -9.8, -9.48, -9.19, -9.19, -9.19, -9.19, -8.87, -8.87, -8.59, -8.87, -8.59, -8.22, -8.22, -8.22, -7.96, -7.57, -7.57, -7.59, -7.59, -7.6, -7.6, -7.24, -7.24, -6.97, -6.58, -6.33, -5.69, -5.04, -5.29, -4.63, -4.4, -4.4, -4.45, -3.93, -3.61, -3.61, -3.88, -3.21, -3.32, -2.57, -2.69, -2.69, -2.54, -2.83, -2.67, -2.67, -2.51, -1.96, -1.96, -1.84, -2.12, -2.12, -2.49, -2.49, -2.12, 0.0, 0.0, 0.0, 0.0, -8.49, -7.07, -6.01, -6.01, -8.49, -8.49, -8.94, -8.49, -8.05, 0.0, 0.0, 4.37, 4.8, 3.65, 0.0, -4.0, -2.91, -4.02, -5.36, -7.15, -8.05, -6.23, -4.29, 0.0, 0.0, 0.0, -9.15, -9.15, -8.85, -8.85, -9.17, -9.17, -9.17, -9.17, -9.17, -9.48, -9.48, -9.48, -9.48, -9.48, -9.48, -9.48, -9.19, -9.19, -9.19, -8.87, -8.87, -8.59, -8.59, -8.87, -8.23, -7.96, -7.96, -7.96, -7.57, -7.57, -7.59, -7.33, -7.22, -6.96, -7.24, -7.24, -6.58, -6.58, -6.33, -5.95, -5.29, -5.29, -4.84, -4.88, -4.4, -4.66, -3.93, -4.2, -3.61, -3.88, -3.7, -3.32, -3.32, -2.69, -2.69, -2.69, -2.83, -2.83, -2.67, -2.67, -2.82, -2.82, -2.82, -3.2, -3.2, -3.68, -2.66, -3.2, -4.74, 0.0, 0.0, 0.0, -6.8, -5.37, -4.22, -5.69, -8.05, -8.94, -8.94, -8.49, -8.05, -7.21, -5.37, 0.0, 1.54, 1.54, 0.0, -4.92, -4.4, -5.09, -5.4, -7.45, -7.01, -6.13, -5.72, 0.0, 0.0, 0.0, -8.85, -8.85, -8.85, -8.85, -8.85, -8.85, -9.17, -9.48, -9.17, -9.48, -9.48, -9.48, -9.48, -9.48, -9.48, -9.48, -9.19, -9.19, -8.87, -8.87, -8.87, -8.87, -8.59, -8.59, -8.23, -8.23, -8.23, -8.23, -7.85, -7.59, -7.59, -6.94, -6.96, -6.96, -7.24, -6.58, -6.58, -6.61, -6.2, -5.95, -5.95, -5.29, -4.84, -4.63, -4.4, -4.4, -4.12, -3.93, -4.2, -3.61, -3.7, -4.0, -3.32, -3.32, -3.45, -3.45, -3.6, -3.6, -3.6, -3.4, -3.2, -3.55, -2.82, -3.2, -3.2, -3.68, -3.68, -3.2, -3.2, -7.15, -7.15, -7.15, -6.4, -3.97, -6.32, -7.21, -8.05, -8.05, -8.49, -8.06, -7.63, -8.05, -7.6, -3.2, 0.0, 0.0, 0.0, -1.32, -4.43, -4.43, -4.84, -6.94, -7.45, -6.9, -6.79, 0.0, 0.0, 0.0, -8.52, -8.52, -8.52, -8.85, -8.85, -8.85, -8.85, -9.17, -9.48, -9.48, -9.48, -9.48, -9.48, -9.17, -9.17, -9.48, -9.48, -9.19, -8.87, -8.87, -8.87, -8.87, -8.87, -8.59, -8.23, -8.23, -8.23, -7.59, -7.59, -7.59, -7.33, -6.94, -6.96, -6.96, -6.58, -6.58, -6.87, -6.61, -6.2, -5.95, -5.95, -5.29, -5.29, -4.84, -5.1, -4.4, -4.4, -4.12, -3.93, -4.2, -4.2, -4.0, -4.0, -4.0, -3.45, -3.45, -3.6, -3.6, -3.6, -3.4, -3.4, -3.77, -3.55, -3.97, -3.97, -4.47, -3.68, -4.56, -4.22, -5.06, -6.26, -7.6, -7.15, -7.15, -6.4, -7.37, -7.81, -7.2, -5.69, -8.06, -8.06, -8.49, -7.6, -4.83, -2.97, -1.58, 0.0, -1.33, -1.4, -2.54, -7.6, -8.49, -8.67, -6.32, -2.17, 1.67, 1.67, 1.67, -8.52, -8.52, -8.52, -8.54, -8.54, -8.85, -8.54, -8.87, -9.48, -9.48, -9.48, -9.48, -9.48, -9.17, -9.17, -9.17, -8.87, -8.87, -8.58, -8.58, -8.58, -8.58, -8.87, -8.87, -8.23, -7.96, -7.96, -7.59, -7.59, -7.33, -6.94, -6.96, -6.96, -6.31, -6.58, -6.58, -6.61, -6.2, -6.2, -5.95, -5.95, -5.52, -5.29, -5.29, -5.1, -5.1, -4.4, -4.66, -4.45, -4.73, -4.73, -4.28, -4.6, -4.0, -4.12, -4.12, -4.12, -4.26, -4.26, -4.26, -4.03, -4.42, -4.42, -4.22, -4.22, -4.75, -4.75, -4.56, -4.83, -4.22, -6.0, -7.6, 0.0, 0.0, 0.0, -6.8, -5.37, -0.0, -5.69, -7.2, -8.06, -8.49, -7.89, -6.28, -4.0, -1.58, -1.44, 0.0, 0.0, 0.0, -1.75, -3.8, -4.0, 0.0, 1.4, 2.69, 2.69, 2.69, -8.52, -8.52, -8.82, -8.49, -8.85, -8.85, -8.54, -8.87, -8.87, -9.48, -9.48, -9.48, -9.48, -9.48, -8.87, -8.87, -8.87, -8.87, -8.87, -8.58, -8.58, -8.58, -8.58, -8.24, -7.96, -7.96, -7.59, -7.59, -7.33, -7.33, -7.22, -6.96, -6.7, -6.31, -6.58, -6.33, -6.33, -6.61, -5.95, -5.95, -5.95, -5.52, -5.52, -5.52, -5.56, -5.56, -4.88, -5.15, -4.66, -4.45, -4.73, -5.04, -5.13, -4.6, -4.96, -4.12, -4.12, -4.5, -4.26, -4.26, -4.26, -4.42, -4.42, -4.87, -4.87, -4.75, -4.75, -5.69, -4.83, -5.37, -4.74, -5.2, 0.0, 0.0, 0.0, -3.2, -3.97, -3.4, -5.37, -6.8, -8.05, -8.05, -7.63, -6.28, -4.71, -2.49, -1.18, 0.0, 0.0, 0.0, 0.0, 0.0, 0.0, 1.2, 2.33, 3.8, 3.8, 3.8, -8.52, -8.52, -8.82, -8.49, -8.85, -8.85, -8.54, -8.87, -8.87, -9.48, -9.48, -9.48, -9.48, -9.48, -8.87, -8.87, -8.87, -8.87, -8.87, -8.58, -8.58, -8.58, -8.58, -8.24, -7.96, -7.96, -7.59, -7.59, -7.33, -7.33, -7.22, -6.96, -6.7, -6.31, -6.58, -6.33, -6.33, -6.61, -5.95, -5.95, -5.95, -5.52, -5.52, -5.52, -5.56, -5.56, -4.88, -5.15, -4.66, -4.45, -4.73, -5.04, -5.13, -4.6, -4.96, -4.12, -4.12, -4.5, -4.26, -4.26, -4.26, -4.42, -4.42, -4.87, -4.87, -4.75, -4.75, -5.69, -4.83, -5.37, -4.74, -5.2, 0.0, 0.0, 0.0, -3.2, -2.4, -3.4, -5.37, -6.8, -8.05, -8.05, -7.63, -6.7, -4.46, -3.14, -1.04, 0.0, 0.0, 1.09, 2.39, 2.28, 2.33, 2.33, 2.33, 2.69, 2.69, 2.69]}]